Time,TemperatureF,DewpointF,PressureIn,WindDirection,WindDirectionDegrees,WindSpeedMPH,WindSpeedGustMPH,Humidity,HourlyPrecipIn,Conditions,Clouds,dailyrainin,SoftwareType,DateUTC
2013-02-02 00:00:00,58.3,25.3,30.15,North,7,3.0,3.0,28,0.00,,,0.00,Wunderground v.1.15,2013-02-02 05:00:00,
2013-02-02 00:01:00,58.3,25.3,30.16,North,7,3.0,5.0,28,0.00,,,0.00,Wunderground v.1.15,2013-02-02 05:01:00,
2013-02-02 00:03:00,58.3,25.3,30.16,North,7,3.0,5.0,28,0.00,,,0.00,Wunderground v.1.15,2013-02-02 05:03:00,
2013-02-02 00:05:00,58.3,25.3,30.16,North,359,3.0,5.0,28,0.00,,,0.00,Wunderground v.1.15,2013-02-02 05:05:00,
2013-02-02 00:09:00,58.3,24.4,30.16,North,357,3.0,5.0,27,0.00,,,0.00,Wunderground v.1.15,2013-02-02 05:09:00,
2013-02-02 00:10:00,58.3,24.4,30.16,North,357,2.0,2.0,27,0.00,,,0.00,Wunderground v.1.15,2013-02-02 05:10:00,
2013-02-02 00:11:00,58.3,24.4,30.16,North,357,2.0,3.0,27,0.00,,,0.00,Wunderground v.1.15,2013-02-02 05:11:00,
2013-02-02 00:12:00,58.3,24.4,30.16,North,0,2.0,3.0,27,0.00,,,0.00,Wunderground v.1.15,2013-02-02 05:12:00,
2013-02-02 00:17:00,58.3,24.4,30.15,North,359,3.0,6.0,27,0.00,,,0.00,Wunderground v.1.15,2013-02-02 05:17:00,
2013-02-02 00:18:00,58.3,24.4,30.15,North,357,3.0,6.0,27,0.00,,,0.00,Wunderground v.1.15,2013-02-02 05:18:00,
2013-02-02 00:21:00,58.3,24.4,30.15,North,359,3.0,3.0,27,0.00,,,0.00,Wunderground v.1.15,2013-02-02 05:21:00,
2013-02-02 00:24:00,58.3,24.4,30.15,North,359,3.0,3.0,27,0.00,,,0.00,Wunderground v.1.15,2013-02-02 05:24:00,
2013-02-02 00:25:00,58.3,24.4,30.15,North,359,2.0,3.0,27,0.00,,,0.00,Wunderground v.1.15,2013-02-02 05:25:00,
2013-02-02 00:27:00,58.3,24.4,30.15,North,359,1.0,3.0,27,0.00,,,0.00,Wunderground v.1.15,2013-02-02 05:27:00,
2013-02-02 00:31:00,58.3,24.4,30.15,North,359,1.0,1.0,27,0.00,,,0.00,Wunderground v.1.15,2013-02-02 05:31:00,
2013-02-02 00:32:00,-999.9,-99.9,30.15,North,32767,-999.0,1.0,255,-99.99,,,0.00,Wunderground v.1.15,2013-02-02 05:32:00,
2013-02-02 00:35:00,-999.9,-99.9,30.15,North,32767,-999.0,1.0,255,-99.99,,,0.00,Wunderground v.1.15,2013-02-02 05:35:00,
2013-02-02 00:37:00,-999.9,-99.9,30.15,North,32767,-999.0,1.0,255,-99.99,,,0.00,Wunderground v.1.15,2013-02-02 05:37:00,
2013-02-02 00:38:00,-999.9,-99.9,30.15,North,32767,-999.0,1.0,255,-99.99,,,0.00,Wunderground v.1.15,2013-02-02 05:38:00,
2013-02-02 00:40:00,-999.9,-99.9,30.15,North,32767,-999.0,0.0,255,-99.99,,,0.00,Wunderground v.1.15,2013-02-02 05:40:00,
2013-02-02 00:43:00,-999.9,-99.9,30.15,North,32767,-999.0,0.0,255,-99.99,,,0.00,Wunderground v.1.15,2013-02-02 05:43:00,
2013-02-02 00:45:00,-999.9,-99.9,30.15,North,32767,-999.0,0.0,255,-99.99,,,0.00,Wunderground v.1.15,2013-02-02 05:45:00,
2013-02-02 00:46:00,-999.9,-99.9,30.15,North,32767,-999.0,0.0,255,-99.99,,,0.00,Wunderground v.1.15,2013-02-02 05:46:00,
2013-02-02 00:48:00,-999.9,-99.9,30.15,North,32767,-999.0,0.0,255,-99.99,,,0.00,Wunderground v.1.15,2013-02-02 05:48:00,
2013-02-02 00:51:00,-999.9,-99.9,30.15,North,32767,-999.0,0.0,255,-99.99,,,0.00,Wunderground v.1.15,2013-02-02 05:51:00,
2013-02-02 00:53:00,-999.9,-99.9,30.15,North,32767,-999.0,0.0,255,-99.99,,,0.00,Wunderground v.1.15,2013-02-02 05:53:00,
2013-02-02 00:56:00,-999.9,-99.9,30.15,North,32767,-999.0,0.0,255,-99.99,,,0.00,Wunderground v.1.15,2013-02-02 05:56:00,
2013-02-02 00:58:00,-999.9,-99.9,30.15,North,32767,-999.0,0.0,255,-99.99,,,0.00,Wunderground v.1.15,2013-02-02 05:58:00,
2013-02-02 01:00:00,-999.9,-99.9,30.15,North,32767,-999.0,0.0,255,-99.99,,,0.00,Wunderground v.1.15,2013-02-02 06:00:00,
2013-02-02 01:03:00,-999.9,-99.9,30.15,North,32767,-999.0,0.0,255,-99.99,,,0.00,Wunderground v.1.15,2013-02-02 06:03:00,
2013-02-02 01:06:00,-999.9,-99.9,30.15,North,0,0.0,0.0,255,-99.99,,,0.00,Wunderground v.1.15,2013-02-02 06:06:00,
2013-02-02 01:07:00,-999.9,-99.9,30.15,North,0,0.0,0.0,255,-99.99,,,0.00,Wunderground v.1.15,2013-02-02 06:07:00,
2013-02-02 01:08:00,-999.9,-99.9,30.15,North,0,0.0,0.0,255,-99.99,,,0.00,Wunderground v.1.15,2013-02-02 06:08:00,
2013-02-02 01:10:00,-999.9,-99.9,30.15,North,0,0.0,0.0,255,-99.99,,,0.00,Wunderground v.1.15,2013-02-02 06:10:00,
2013-02-02 01:15:00,-999.9,-99.9,30.15,North,0,0.0,0.0,255,-99.99,,,0.00,Wunderground v.1.15,2013-02-02 06:15:00,
2013-02-02 01:17:00,-999.9,-99.9,30.14,North,11,0.0,0.0,255,0.00,,,0.00,Wunderground v.1.15,2013-02-02 06:17:00,
2013-02-02 01:18:00,-999.9,-99.9,30.14,North,11,0.0,0.0,255,0.00,,,0.00,Wunderground v.1.15,2013-02-02 06:18:00,
2013-02-02 01:20:00,-999.9,-99.9,30.14,North,11,0.0,0.0,255,0.00,,,0.00,Wunderground v.1.15,2013-02-02 06:20:00,
2013-02-02 01:22:00,-999.9,-99.9,30.14,North,11,0.0,0.0,255,0.00,,,0.00,Wunderground v.1.15,2013-02-02 06:22:00,
2013-02-02 01:24:00,-999.9,-99.9,30.14,North,11,0.0,0.0,255,0.00,,,0.00,Wunderground v.1.15,2013-02-02 06:24:00,
2013-02-02 01:25:00,-999.9,-99.9,30.14,North,11,0.0,0.0,255,0.00,,,0.00,Wunderground v.1.15,2013-02-02 06:25:00,
2013-02-02 01:29:00,-999.9,-99.9,30.14,North,32767,-999.0,0.0,255,-99.99,,,0.00,Wunderground v.1.15,2013-02-02 06:29:00,
2013-02-02 01:32:00,-999.9,-99.9,30.14,North,32767,-999.0,0.0,255,-99.99,,,0.00,Wunderground v.1.15,2013-02-02 06:32:00,
2013-02-02 01:35:00,-999.9,-99.9,30.14,North,32767,-999.0,0.0,255,-99.99,,,0.00,Wunderground v.1.15,2013-02-02 06:35:00,
2013-02-02 01:36:00,-999.9,-99.9,30.14,North,32767,-999.0,0.0,255,-99.99,,,0.00,Wunderground v.1.15,2013-02-02 06:36:00,
2013-02-02 01:37:00,-999.9,-99.9,30.14,North,32767,-999.0,0.0,255,-99.99,,,0.00,Wunderground v.1.15,2013-02-02 06:37:00,
2013-02-02 01:42:00,-999.9,-99.9,30.14,North,0,0.0,0.0,255,0.00,,,0.00,Wunderground v.1.15,2013-02-02 06:42:00,
2013-02-02 01:43:00,57.8,-99.9,30.14,North,359,2.0,2.0,255,0.00,,,0.00,Wunderground v.1.15,2013-02-02 06:43:00,
2013-02-02 01:45:00,57.8,-99.9,30.14,North,0,3.0,3.0,255,0.00,,,0.00,Wunderground v.1.15,2013-02-02 06:45:00,
2013-02-02 01:47:00,57.8,-99.9,30.14,NNE,14,3.0,3.0,255,0.00,,,0.00,Wunderground v.1.15,2013-02-02 06:47:00,
2013-02-02 01:49:00,57.8,-99.9,30.14,NNE,14,2.0,3.0,255,0.00,,,0.00,Wunderground v.1.15,2013-02-02 06:49:00,
2013-02-02 01:51:00,57.8,-99.9,30.14,NNE,14,2.0,2.0,255,0.00,,,0.00,Wunderground v.1.15,2013-02-02 06:51:00,
2013-02-02 01:52:00,57.8,-99.9,30.14,North,359,3.0,3.0,255,0.00,,,0.00,Wunderground v.1.15,2013-02-02 06:52:00,
2013-02-02 01:55:00,57.8,-99.9,30.14,North,359,3.0,3.0,255,0.00,,,0.00,Wunderground v.1.15,2013-02-02 06:55:00,
2013-02-02 01:56:00,57.8,-99.9,30.14,North,0,3.0,5.0,255,0.00,,,0.00,Wunderground v.1.15,2013-02-02 06:56:00,
2013-02-02 01:58:00,57.8,-99.9,30.14,North,0,3.0,5.0,255,0.00,,,0.00,Wunderground v.1.15,2013-02-02 06:58:00,
2013-02-02 02:00:00,57.8,-99.9,30.13,North,0,3.0,3.0,255,0.00,,,0.00,Wunderground v.1.15,2013-02-02 07:00:00,
2013-02-02 02:01:00,57.8,-99.9,30.13,North,0,3.0,3.0,255,0.00,,,0.00,Wunderground v.1.15,2013-02-02 07:01:00,
2013-02-02 02:04:00,57.8,-99.9,30.13,North,0,0.0,3.0,255,0.00,,,0.00,Wunderground v.1.15,2013-02-02 07:04:00,
2013-02-02 02:07:00,57.8,-99.9,30.13,North,0,0.0,3.0,255,0.00,,,0.00,Wunderground v.1.15,2013-02-02 07:07:00,
2013-02-02 02:08:00,57.8,-99.9,30.13,North,0,0.0,3.0,255,0.00,,,0.00,Wunderground v.1.15,2013-02-02 07:08:00,
2013-02-02 02:09:00,57.8,-99.9,30.13,North,0,0.0,3.0,255,0.00,,,0.00,Wunderground v.1.15,2013-02-02 07:09:00,
2013-02-02 02:14:00,57.8,-99.9,30.13,North,0,0.0,0.0,255,0.00,,,0.00,Wunderground v.1.15,2013-02-02 07:14:00,
2013-02-02 02:15:00,57.8,-99.9,30.13,North,0,0.0,0.0,255,0.00,,,0.00,Wunderground v.1.15,2013-02-02 07:15:00,
2013-02-02 02:16:00,57.8,-99.9,30.13,North,0,0.0,0.0,255,0.00,,,0.00,Wunderground v.1.15,2013-02-02 07:16:00,
2013-02-02 02:17:00,-999.9,-99.9,30.13,North,32767,-999.0,0.0,255,-99.99,,,0.00,Wunderground v.1.15,2013-02-02 07:17:00,
2013-02-02 02:19:00,-999.9,-99.9,30.13,North,32767,-999.0,0.0,255,-99.99,,,0.00,Wunderground v.1.15,2013-02-02 07:19:00,
2013-02-02 02:21:00,-999.9,-99.9,30.13,North,32767,-999.0,0.0,255,-99.99,,,0.00,Wunderground v.1.15,2013-02-02 07:21:00,
2013-02-02 02:23:00,-999.9,-99.9,30.13,North,32767,-999.0,0.0,255,-99.99,,,0.00,Wunderground v.1.15,2013-02-02 07:23:00,
2013-02-02 02:25:00,-999.9,-99.9,30.13,North,32767,-999.0,0.0,255,-99.99,,,0.00,Wunderground v.1.15,2013-02-02 07:25:00,
2013-02-02 02:28:00,-999.9,-99.9,30.13,North,32767,-999.0,0.0,255,-99.99,,,0.00,Wunderground v.1.15,2013-02-02 07:28:00,
2013-02-02 02:29:00,-999.9,-99.9,30.13,North,32767,-999.0,0.0,255,-99.99,,,0.00,Wunderground v.1.15,2013-02-02 07:29:00,
2013-02-02 02:32:00,-999.9,-99.9,30.13,North,0,1.0,1.0,255,0.00,,,0.00,Wunderground v.1.15,2013-02-02 07:32:00,
2013-02-02 02:34:00,-999.9,-99.9,30.13,North,0,0.0,1.0,255,0.00,,,0.00,Wunderground v.1.15,2013-02-02 07:34:00,
2013-02-02 02:36:00,-999.9,-99.9,30.13,North,0,0.0,1.0,255,0.00,,,0.00,Wunderground v.1.15,2013-02-02 07:36:00,
2013-02-02 02:38:00,-999.9,-99.9,30.13,North,0,0.0,1.0,255,0.00,,,0.00,Wunderground v.1.15,2013-02-02 07:38:00,
2013-02-02 02:40:00,-999.9,-99.9,30.13,North,0,0.0,0.0,255,0.00,,,0.00,Wunderground v.1.15,2013-02-02 07:40:00,
2013-02-02 02:42:00,57.3,-99.9,30.13,North,0,1.0,5.0,255,0.00,,,0.00,Wunderground v.1.15,2013-02-02 07:42:00,
2013-02-02 02:44:00,57.3,-99.9,30.13,North,0,1.0,5.0,255,0.00,,,0.00,Wunderground v.1.15,2013-02-02 07:44:00,
2013-02-02 02:48:00,57.3,-99.9,30.13,North,0,0.0,5.0,255,0.00,,,0.00,Wunderground v.1.15,2013-02-02 07:48:00,
2013-02-02 02:50:00,57.3,-99.9,30.13,North,0,0.0,0.0,255,0.00,,,0.00,Wunderground v.1.15,2013-02-02 07:50:00,
2013-02-02 02:51:00,57.3,-99.9,30.13,North,0,0.0,0.0,255,0.00,,,0.00,Wunderground v.1.15,2013-02-02 07:51:00,
2013-02-02 02:52:00,57.3,-99.9,30.13,North,0,0.0,0.0,255,0.00,,,0.00,Wunderground v.1.15,2013-02-02 07:52:00,
2013-02-02 02:54:00,57.3,-99.9,30.13,North,0,0.0,0.0,255,0.00,,,0.00,Wunderground v.1.15,2013-02-02 07:54:00,
2013-02-02 02:56:00,57.3,-99.9,30.13,North,0,1.0,1.0,255,0.00,,,0.00,Wunderground v.1.15,2013-02-02 07:56:00,
2013-02-02 02:59:00,57.3,-99.9,30.13,North,0,1.0,3.0,255,0.00,,,0.00,Wunderground v.1.15,2013-02-02 07:59:00,
2013-02-02 03:01:00,57.3,-99.9,30.13,North,0,1.0,2.0,255,0.00,,,0.00,Wunderground v.1.15,2013-02-02 08:01:00,
2013-02-02 03:06:00,57.3,-99.9,30.13,North,0,2.0,3.0,255,0.00,,,0.00,Wunderground v.1.15,2013-02-02 08:06:00,
2013-02-02 03:08:00,57.3,-99.9,30.13,North,0,1.0,3.0,255,0.00,,,0.00,Wunderground v.1.15,2013-02-02 08:08:00,
2013-02-02 03:09:00,57.3,-99.9,30.13,North,0,1.0,3.0,255,0.00,,,0.00,Wunderground v.1.15,2013-02-02 08:09:00,
2013-02-02 03:10:00,57.3,-99.9,30.13,North,0,1.0,2.0,255,0.00,,,0.00,Wunderground v.1.15,2013-02-02 08:10:00,
2013-02-02 03:15:00,57.0,-99.9,30.13,North,0,2.0,2.0,255,0.00,,,0.00,Wunderground v.1.15,2013-02-02 08:15:00,
2013-02-02 03:16:00,57.0,-99.9,30.13,North,0,1.0,2.0,255,0.00,,,0.00,Wunderground v.1.15,2013-02-02 08:16:00,
2013-02-02 03:17:00,57.0,-99.9,30.13,North,0,1.0,2.0,255,0.00,,,0.00,Wunderground v.1.15,2013-02-02 08:17:00,
2013-02-02 03:19:00,57.0,-99.9,30.13,North,0,1.0,3.0,255,0.00,,,0.00,Wunderground v.1.15,2013-02-02 08:19:00,
2013-02-02 03:22:00,57.0,-99.9,30.13,North,0,1.0,2.0,255,0.00,,,0.00,Wunderground v.1.15,2013-02-02 08:22:00,
2013-02-02 03:24:00,57.0,-99.9,30.13,North,11,1.0,3.0,255,0.00,,,0.00,Wunderground v.1.15,2013-02-02 08:24:00,
2013-02-02 03:26:00,57.0,-99.9,30.13,North,11,2.0,3.0,255,0.00,,,0.00,Wunderground v.1.15,2013-02-02 08:26:00,
2013-02-02 03:27:00,57.0,-99.9,30.13,NNE,13,2.0,3.0,255,0.00,,,0.00,Wunderground v.1.15,2013-02-02 08:27:00,
2013-02-02 03:28:00,56.9,-99.9,30.13,NNE,13,2.0,3.0,255,0.00,,,0.00,Wunderground v.1.15,2013-02-02 08:28:00,
2013-02-02 03:33:00,56.9,-99.9,30.13,NNE,13,1.0,2.0,255,0.00,,,0.00,Wunderground v.1.15,2013-02-02 08:33:00,
2013-02-02 03:34:00,56.9,-99.9,30.13,NNE,13,1.0,2.0,255,0.00,,,0.00,Wunderground v.1.15,2013-02-02 08:34:00,
2013-02-02 03:35:00,56.9,-99.9,30.13,NNE,13,1.0,3.0,255,0.00,,,0.00,Wunderground v.1.15,2013-02-02 08:35:00,
2013-02-02 03:36:00,56.9,-99.9,30.13,NNE,13,2.0,3.0,255,0.00,,,0.00,Wunderground v.1.15,2013-02-02 08:36:00,
2013-02-02 03:39:00,56.7,-99.9,30.13,NNE,13,1.0,3.0,255,0.00,,,0.00,Wunderground v.1.15,2013-02-02 08:39:00,
2013-02-02 03:40:00,56.7,-99.9,30.13,NNE,13,1.0,1.0,255,0.00,,,0.00,Wunderground v.1.15,2013-02-02 08:40:00,
2013-02-02 03:42:00,56.7,-99.9,30.13,NNE,13,1.0,1.0,255,0.00,,,0.00,Wunderground v.1.15,2013-02-02 08:42:00,
2013-02-02 03:43:00,56.7,-99.9,30.13,NNE,13,1.0,1.0,255,0.00,,,0.00,Wunderground v.1.15,2013-02-02 08:43:00,
2013-02-02 03:45:00,56.7,-99.9,30.13,NNE,13,1.0,1.0,255,0.00,,,0.00,Wunderground v.1.15,2013-02-02 08:45:00,
2013-02-02 03:46:00,56.7,-99.9,30.13,NNE,13,0.0,1.0,255,0.00,,,0.00,Wunderground v.1.15,2013-02-02 08:46:00,
2013-02-02 03:47:00,56.6,-31.2,30.13,NNE,13,1.0,1.0,2,0.00,,,0.00,Wunderground v.1.15,2013-02-02 08:47:00,
2013-02-02 03:49:00,56.6,-31.2,30.13,North,11,0.0,2.0,2,0.00,,,0.00,Wunderground v.1.15,2013-02-02 08:49:00,
2013-02-02 03:51:00,56.5,-31.3,30.13,North,11,0.0,0.0,2,0.00,,,0.00,Wunderground v.1.15,2013-02-02 08:51:00,
2013-02-02 03:52:00,56.5,-31.3,30.13,North,11,0.0,0.0,2,0.00,,,0.00,Wunderground v.1.15,2013-02-02 08:52:00,
2013-02-02 03:53:00,56.5,-31.3,30.13,North,11,0.0,1.0,2,0.00,,,0.00,Wunderground v.1.15,2013-02-02 08:53:00,
2013-02-02 03:57:00,56.5,-31.3,30.13,North,11,0.0,1.0,2,0.00,,,0.00,Wunderground v.1.15,2013-02-02 08:57:00,
2013-02-02 03:59:00,56.5,-99.9,30.13,North,11,0.0,1.0,0,0.00,,,0.00,Wunderground v.1.15,2013-02-02 08:59:00,
2013-02-02 04:03:00,56.5,-99.9,30.13,NNE,13,0.0,1.0,0,0.00,,,0.00,Wunderground v.1.15,2013-02-02 09:03:00,
2013-02-02 04:05:00,56.5,-99.9,30.13,NNE,13,1.0,2.0,0,0.00,,,0.00,Wunderground v.1.15,2013-02-02 09:05:00,
2013-02-02 04:08:00,56.2,-99.9,30.13,North,11,1.0,2.0,0,0.00,,,0.00,Wunderground v.1.15,2013-02-02 09:08:00,
2013-02-02 04:11:00,56.2,-99.9,30.13,North,11,1.0,2.0,0,0.00,,,0.00,Wunderground v.1.15,2013-02-02 09:11:00,
2013-02-02 04:12:00,56.2,-99.9,30.13,North,11,1.0,2.0,0,0.00,,,0.00,Wunderground v.1.15,2013-02-02 09:12:00,
2013-02-02 04:16:00,56.2,-99.9,30.13,North,11,1.0,2.0,0,0.00,,,0.00,Wunderground v.1.15,2013-02-02 09:16:00,
2013-02-02 04:18:00,56.2,-99.9,30.13,North,11,1.0,2.0,0,0.00,,,0.00,Wunderground v.1.15,2013-02-02 09:18:00,
2013-02-02 04:20:00,56.2,-99.9,30.13,North,11,1.0,1.0,0,0.00,,,0.00,Wunderground v.1.15,2013-02-02 09:20:00,
2013-02-02 04:23:00,56.2,-99.9,30.13,North,11,1.0,2.0,0,0.00,,,0.00,Wunderground v.1.15,2013-02-02 09:23:00,
2013-02-02 04:26:00,56.2,-99.9,30.13,North,11,1.0,2.0,0,0.00,,,0.00,Wunderground v.1.15,2013-02-02 09:26:00,
2013-02-02 04:27:00,56.2,-99.9,30.13,North,11,1.0,2.0,255,0.00,,,0.00,Wunderground v.1.15,2013-02-02 09:27:00,
2013-02-02 04:28:00,55.7,-99.9,30.13,North,11,1.0,2.0,255,0.00,,,0.00,Wunderground v.1.15,2013-02-02 09:28:00,
2013-02-02 04:29:00,55.7,-99.9,30.13,North,11,1.0,3.0,255,0.00,,,0.00,Wunderground v.1.15,2013-02-02 09:29:00,
2013-02-02 04:32:00,55.7,-99.9,30.13,NNW,347,2.0,4.0,0,0.00,,,0.00,Wunderground v.1.15,2013-02-02 09:32:00,
2013-02-02 04:33:00,55.7,-99.9,30.13,North,0,2.0,4.0,0,0.00,,,0.00,Wunderground v.1.15,2013-02-02 09:33:00,
2013-02-02 04:34:00,55.7,-99.9,30.13,North,359,2.0,4.0,0,0.00,,,0.00,Wunderground v.1.15,2013-02-02 09:34:00,
2013-02-02 04:38:00,55.7,-99.9,30.13,North,6,3.0,5.0,0,0.00,,,0.00,Wunderground v.1.15,2013-02-02 09:38:00,
2013-02-02 04:39:00,55.9,-99.9,30.13,North,3,3.0,5.0,0,0.00,,,0.00,Wunderground v.1.15,2013-02-02 09:39:00,
2013-02-02 04:40:00,55.9,-99.9,30.13,North,3,3.0,3.0,0,0.00,,,0.00,Wunderground v.1.15,2013-02-02 09:40:00,
2013-02-02 04:41:00,55.9,-99.9,30.13,North,4,3.0,3.0,0,0.00,,,0.00,Wunderground v.1.15,2013-02-02 09:41:00,
2013-02-02 04:46:00,56.0,-99.9,30.13,North,8,3.0,6.0,0,0.00,,,0.00,Wunderground v.1.15,2013-02-02 09:46:00,
2013-02-02 04:47:00,56.0,-99.9,30.13,North,8,3.0,6.0,0,0.00,,,0.00,Wunderground v.1.15,2013-02-02 09:47:00,
2013-02-02 04:48:00,56.0,-99.9,30.13,North,8,2.0,6.0,0,0.00,,,0.00,Wunderground v.1.15,2013-02-02 09:48:00,
2013-02-02 04:53:00,55.9,-99.9,30.13,North,8,2.0,3.0,0,0.00,,,0.00,Wunderground v.1.15,2013-02-02 09:53:00,
2013-02-02 04:54:00,55.9,-99.9,30.13,North,8,2.0,3.0,0,0.00,,,0.00,Wunderground v.1.15,2013-02-02 09:54:00,
2013-02-02 04:55:00,55.9,-99.9,30.13,North,8,2.0,3.0,0,0.00,,,0.00,Wunderground v.1.15,2013-02-02 09:55:00,
2013-02-02 04:56:00,55.9,-99.9,30.13,North,8,2.0,3.0,0,0.00,,,0.00,Wunderground v.1.15,2013-02-02 09:56:00,
2013-02-02 04:59:00,55.9,-99.9,30.13,North,8,2.0,3.0,0,0.00,,,0.00,Wunderground v.1.15,2013-02-02 09:59:00,
2013-02-02 05:00:00,55.9,-99.9,30.13,North,8,2.0,2.0,0,0.00,,,0.00,Wunderground v.1.15,2013-02-02 10:00:00,
2013-02-02 05:05:00,55.9,-99.9,30.13,North,8,2.0,3.0,0,0.00,,,0.00,Wunderground v.1.15,2013-02-02 10:05:00,
2013-02-02 05:06:00,55.9,-99.9,30.13,North,8,2.0,3.0,0,0.00,,,0.00,Wunderground v.1.15,2013-02-02 10:06:00,
2013-02-02 05:07:00,55.9,-99.9,30.13,North,8,2.0,3.0,0,0.00,,,0.00,Wunderground v.1.15,2013-02-02 10:07:00,
2013-02-02 05:12:00,55.7,-99.9,30.13,North,11,2.0,3.0,0,0.00,,,0.00,Wunderground v.1.15,2013-02-02 10:12:00,
2013-02-02 05:13:00,55.7,-99.9,30.13,North,11,2.0,3.0,0,0.00,,,0.00,Wunderground v.1.15,2013-02-02 10:13:00,
2013-02-02 05:14:00,55.7,-99.9,30.13,North,11,2.0,3.0,0,0.00,,,0.00,Wunderground v.1.15,2013-02-02 10:14:00,
2013-02-02 05:17:00,55.7,-99.9,30.13,North,11,2.0,3.0,0,0.00,,,0.00,Wunderground v.1.15,2013-02-02 10:17:00,
2013-02-02 05:20:00,55.7,-99.9,30.13,North,10,2.0,2.0,0,0.00,,,0.00,Wunderground v.1.15,2013-02-02 10:20:00,
2013-02-02 05:21:00,55.7,-99.9,30.13,North,10,2.0,2.0,0,0.00,,,0.00,Wunderground v.1.15,2013-02-02 10:21:00,
2013-02-02 05:23:00,55.7,-99.9,30.13,North,10,2.0,2.0,0,0.00,,,0.00,Wunderground v.1.15,2013-02-02 10:23:00,
2013-02-02 05:26:00,55.7,-99.9,30.13,North,8,1.0,2.0,0,0.00,,,0.00,Wunderground v.1.15,2013-02-02 10:26:00,
2013-02-02 05:28:00,55.7,-99.9,30.13,North,8,1.0,2.0,0,0.00,,,0.00,Wunderground v.1.15,2013-02-02 10:28:00,
2013-02-02 05:31:00,55.7,-99.9,30.13,North,8,0.0,0.0,0,0.00,,,0.00,Wunderground v.1.15,2013-02-02 10:31:00,
2013-02-02 05:32:00,55.7,-99.9,30.13,North,8,0.0,0.0,0,0.00,,,0.00,Wunderground v.1.15,2013-02-02 10:32:00,
2013-02-02 05:35:00,55.4,-99.9,30.13,North,7,2.0,2.0,0,0.00,,,0.00,Wunderground v.1.15,2013-02-02 10:35:00,
2013-02-02 05:37:00,55.4,-99.9,30.13,North,7,2.0,2.0,0,0.00,,,0.00,Wunderground v.1.15,2013-02-02 10:37:00,
2013-02-02 05:38:00,55.4,-99.9,30.13,North,7,1.0,2.0,0,0.00,,,0.00,Wunderground v.1.15,2013-02-02 10:38:00,
2013-02-02 05:44:00,55.3,-99.9,30.13,North,7,1.0,2.0,0,0.00,,,0.00,Wunderground v.1.15,2013-02-02 10:44:00,
2013-02-02 05:45:00,55.1,-99.9,30.14,North,357,1.0,5.0,0,0.00,,,0.00,Wunderground v.1.15,2013-02-02 10:45:00,
2013-02-02 05:48:00,55.1,-99.9,30.14,North,357,1.0,5.0,0,0.00,,,0.00,Wunderground v.1.15,2013-02-02 10:48:00,
2013-02-02 05:50:00,55.1,-99.9,30.14,North,359,2.0,2.0,0,0.00,,,0.00,Wunderground v.1.15,2013-02-02 10:50:00,
2013-02-02 05:51:00,55.1,-99.9,30.14,North,357,2.0,2.0,0,0.00,,,0.00,Wunderground v.1.15,2013-02-02 10:51:00,
2013-02-02 05:53:00,55.1,-99.9,30.14,North,359,2.0,3.0,0,0.00,,,0.00,Wunderground v.1.15,2013-02-02 10:53:00,
2013-02-02 05:54:00,55.1,-99.9,30.14,North,359,2.0,3.0,0,0.00,,,0.00,Wunderground v.1.15,2013-02-02 10:54:00,
2013-02-02 05:56:00,55.1,-99.9,30.14,North,359,2.0,3.0,0,0.00,,,0.00,Wunderground v.1.15,2013-02-02 10:56:00,
2013-02-02 05:59:00,55.1,-99.9,30.14,North,359,2.0,3.0,0,0.00,,,0.00,Wunderground v.1.15,2013-02-02 10:59:00,
2013-02-02 06:01:00,55.0,-99.9,30.14,North,359,1.0,2.0,0,0.00,,,0.00,Wunderground v.1.15,2013-02-02 11:01:00,
2013-02-02 06:04:00,55.0,-99.9,30.14,North,357,1.0,2.0,0,0.00,,,0.00,Wunderground v.1.15,2013-02-02 11:04:00,
2013-02-02 06:05:00,55.0,-99.9,30.14,North,359,1.0,2.0,0,0.00,,,0.00,Wunderground v.1.15,2013-02-02 11:05:00,
2013-02-02 06:08:00,55.0,-99.9,30.14,North,359,1.0,2.0,0,0.00,,,0.00,Wunderground v.1.15,2013-02-02 11:08:00,
2013-02-02 06:09:00,55.0,-99.9,30.14,North,357,1.0,2.0,0,0.00,,,0.00,Wunderground v.1.15,2013-02-02 11:09:00,
2013-02-02 06:10:00,55.0,-99.9,30.14,North,359,1.0,2.0,0,0.00,,,0.00,Wunderground v.1.15,2013-02-02 11:10:00,
2013-02-02 06:15:00,55.0,-99.9,30.15,North,359,1.0,2.0,0,0.00,,,0.00,Wunderground v.1.15,2013-02-02 11:15:00,
2013-02-02 06:16:00,55.0,-99.9,30.15,North,359,1.0,2.0,0,0.00,,,0.00,Wunderground v.1.15,2013-02-02 11:16:00,
2013-02-02 06:17:00,55.0,-99.9,30.15,North,357,1.0,2.0,0,0.00,,,0.00,Wunderground v.1.15,2013-02-02 11:17:00,
2013-02-02 06:21:00,54.8,-99.9,30.15,North,359,0.0,3.0,0,0.00,,,0.00,Wunderground v.1.15,2013-02-02 11:21:00,
2013-02-02 06:23:00,54.8,-99.9,30.15,North,359,1.0,3.0,0,0.00,,,0.00,Wunderground v.1.15,2013-02-02 11:23:00,
2013-02-02 06:26:00,54.8,-99.9,30.15,North,359,1.0,3.0,0,0.00,,,0.00,Wunderground v.1.15,2013-02-02 11:26:00,
2013-02-02 06:28:00,54.8,-99.9,30.15,North,359,1.0,3.0,0,0.00,,,0.00,Wunderground v.1.15,2013-02-02 11:28:00,
2013-02-02 06:31:00,54.7,-99.9,30.16,North,359,2.0,3.0,0,0.00,,,0.00,Wunderground v.1.15,2013-02-02 11:31:00,
2013-02-02 06:33:00,54.7,-99.9,30.16,North,359,2.0,3.0,0,0.00,,,0.00,Wunderground v.1.15,2013-02-02 11:33:00,
2013-02-02 06:35:00,54.5,-99.9,30.16,North,359,2.0,3.0,0,0.00,,,0.00,Wunderground v.1.15,2013-02-02 11:35:00,
2013-02-02 06:39:00,54.5,-99.9,30.16,North,357,1.0,3.0,0,0.00,,,0.00,Wunderground v.1.15,2013-02-02 11:39:00,
2013-02-02 06:40:00,54.5,-99.9,30.16,North,359,1.0,2.0,0,0.00,,,0.00,Wunderground v.1.15,2013-02-02 11:40:00,
2013-02-02 06:42:00,54.5,-99.9,30.16,North,359,1.0,3.0,0,0.00,,,0.00,Wunderground v.1.15,2013-02-02 11:42:00,
2013-02-02 06:45:00,54.4,-99.9,30.16,North,359,1.0,3.0,0,0.00,,,0.00,Wunderground v.1.15,2013-02-02 11:45:00,
2013-02-02 06:49:00,54.4,-99.9,30.16,North,359,2.0,3.0,0,0.00,,,0.00,Wunderground v.1.15,2013-02-02 11:49:00,
2013-02-02 06:51:00,54.4,-99.9,30.16,North,359,2.0,3.0,0,0.00,,,0.00,Wunderground v.1.15,2013-02-02 11:51:00,
2013-02-02 06:53:00,54.2,-99.9,30.16,North,359,2.0,3.0,0,0.00,,,0.00,Wunderground v.1.15,2013-02-02 11:53:00,
2013-02-02 06:56:00,54.2,-99.9,30.16,North,359,2.0,3.0,0,0.00,,,0.00,Wunderground v.1.15,2013-02-02 11:56:00,
2013-02-02 06:57:00,54.2,-99.9,30.16,North,0,2.0,4.0,0,0.00,,,0.00,Wunderground v.1.15,2013-02-02 11:57:00,
2013-02-02 07:01:00,54.2,-99.9,30.16,North,0,2.0,2.0,0,0.00,,,0.00,Wunderground v.1.15,2013-02-02 12:01:00,
2013-02-02 07:02:00,54.2,-99.9,30.16,North,0,2.0,2.0,0,0.00,,,0.00,Wunderground v.1.15,2013-02-02 12:02:00,
2013-02-02 07:05:00,54.2,-99.9,30.16,North,0,2.0,2.0,0,0.00,,,0.00,Wunderground v.1.15,2013-02-02 12:05:00,
2013-02-02 07:07:00,54.2,-99.9,30.16,North,0,2.0,2.0,0,0.00,,,0.00,Wunderground v.1.15,2013-02-02 12:07:00,
2013-02-02 07:10:00,54.2,-99.9,30.16,North,0,2.0,2.0,0,0.00,,,0.00,Wunderground v.1.15,2013-02-02 12:10:00,
2013-02-02 07:11:00,54.2,-99.9,30.16,North,0,2.0,2.0,0,0.00,,,0.00,Wunderground v.1.15,2013-02-02 12:11:00,
2013-02-02 07:12:00,54.2,-99.9,30.16,North,0,2.0,2.0,0,0.00,,,0.00,Wunderground v.1.15,2013-02-02 12:12:00,
2013-02-02 07:14:00,54.2,-99.9,30.16,North,0,2.0,3.0,0,0.00,,,0.00,Wunderground v.1.15,2013-02-02 12:14:00,
2013-02-02 07:16:00,54.2,-99.9,30.17,North,0,1.0,3.0,0,0.00,,,0.00,Wunderground v.1.15,2013-02-02 12:16:00,
2013-02-02 07:18:00,54.2,-99.9,30.17,North,0,1.0,3.0,0,0.00,,,0.00,Wunderground v.1.15,2013-02-02 12:18:00,
2013-02-02 07:19:00,54.2,-99.9,30.17,North,0,1.0,3.0,0,0.00,,,0.00,Wunderground v.1.15,2013-02-02 12:19:00,
2013-02-02 07:23:00,54.4,-99.9,30.17,North,0,1.0,2.0,0,0.00,,,0.00,Wunderground v.1.15,2013-02-02 12:23:00,
2013-02-02 07:24:00,54.4,-99.9,30.17,North,0,1.0,3.0,0,0.00,,,0.00,Wunderground v.1.15,2013-02-02 12:24:00,
2013-02-02 07:25:00,54.4,-99.9,30.17,North,0,1.0,3.0,0,0.00,,,0.00,Wunderground v.1.15,2013-02-02 12:25:00,
2013-02-02 07:26:00,54.4,-99.9,30.17,North,0,1.0,3.0,0,0.00,,,0.00,Wunderground v.1.15,2013-02-02 12:26:00,
2013-02-02 07:29:00,54.5,-99.9,30.17,North,359,1.0,3.0,0,0.00,,,0.00,Wunderground v.1.15,2013-02-02 12:29:00,
2013-02-02 07:30:00,54.5,-99.9,30.17,North,8,1.0,1.0,0,0.00,,,0.00,Wunderground v.1.15,2013-02-02 12:30:00,
2013-02-02 07:35:00,54.2,-99.9,30.17,NNE,23,2.0,5.0,0,0.00,,,0.00,Wunderground v.1.15,2013-02-02 12:35:00,
2013-02-02 07:36:00,54.2,-99.9,30.17,NNE,23,2.0,5.0,0,0.00,,,0.00,Wunderground v.1.15,2013-02-02 12:36:00,
2013-02-02 07:38:00,54.1,-99.9,30.17,NNE,23,2.0,5.0,0,0.00,,,0.00,Wunderground v.1.15,2013-02-02 12:38:00,
2013-02-02 07:41:00,54.2,-99.9,30.17,North,0,2.0,2.0,0,0.00,,,0.00,Wunderground v.1.15,2013-02-02 12:41:00,
2013-02-02 07:43:00,54.4,-99.9,30.17,North,0,2.0,2.0,0,0.00,,,0.00,Wunderground v.1.15,2013-02-02 12:43:00,
2013-02-02 07:47:00,54.7,-99.9,30.17,North,8,2.0,2.0,0,0.00,,,0.00,Wunderground v.1.15,2013-02-02 12:47:00,
2013-02-02 07:49:00,54.8,-99.9,30.17,North,8,2.0,3.0,0,0.00,,,0.00,Wunderground v.1.15,2013-02-02 12:49:00,
2013-02-02 07:52:00,54.8,-99.9,30.17,North,8,2.0,2.0,0,0.00,,,0.00,Wunderground v.1.15,2013-02-02 12:52:00,
2013-02-02 07:53:00,54.8,-99.9,30.17,North,8,2.0,2.0,0,0.00,,,0.00,Wunderground v.1.15,2013-02-02 12:53:00,
2013-02-02 07:57:00,55.0,-99.9,30.17,North,7,2.0,2.0,0,0.00,,,0.00,Wunderground v.1.15,2013-02-02 12:57:00,
2013-02-02 08:00:00,55.1,-99.9,30.17,North,7,1.0,1.0,0,0.00,,,0.00,Wunderground v.1.15,2013-02-02 13:00:00,
2013-02-02 08:01:00,55.1,-99.9,30.17,North,7,1.0,1.0,0,0.00,,,0.00,Wunderground v.1.15,2013-02-02 13:01:00,
2013-02-02 08:04:00,55.3,-99.9,30.17,North,8,1.0,2.0,0,0.00,,,0.00,Wunderground v.1.15,2013-02-02 13:04:00,
2013-02-02 08:06:00,55.3,-99.9,30.17,North,8,1.0,2.0,0,0.00,,,0.00,Wunderground v.1.15,2013-02-02 13:06:00,
2013-02-02 08:07:00,55.4,-99.9,30.17,North,8,1.0,2.0,0,0.00,,,0.00,Wunderground v.1.15,2013-02-02 13:07:00,
2013-02-02 08:08:00,55.4,-99.9,30.17,North,8,1.0,2.0,0,0.00,,,0.00,Wunderground v.1.15,2013-02-02 13:08:00,
2013-02-02 08:11:00,55.9,-99.9,30.17,North,7,1.0,2.0,0,0.00,,,0.00,Wunderground v.1.15,2013-02-02 13:11:00,
2013-02-02 08:12:00,56.0,-99.9,30.17,North,7,1.0,3.0,0,0.00,,,0.00,Wunderground v.1.15,2013-02-02 13:12:00,
2013-02-02 08:14:00,56.3,-99.9,30.17,North,8,1.0,3.0,0,0.00,,,0.00,Wunderground v.1.15,2013-02-02 13:14:00,
2013-02-02 08:18:00,57.0,57.0,30.17,North,10,1.0,3.0,100,0.00,,,0.00,Wunderground v.1.15,2013-02-02 13:18:00,
2013-02-02 08:20:00,57.3,57.3,30.17,NNE,16,1.0,3.0,100,0.00,,,0.00,Wunderground v.1.15,2013-02-02 13:20:00,
2013-02-02 08:21:00,57.5,57.5,30.17,NNE,16,1.0,3.0,100,0.00,,,0.00,Wunderground v.1.15,2013-02-02 13:21:00,
2013-02-02 08:23:00,57.8,57.8,30.17,NNE,17,1.0,4.0,100,0.00,,,0.00,Wunderground v.1.15,2013-02-02 13:23:00,
2013-02-02 08:26:00,58.1,58.1,30.17,North,0,2.0,5.0,100,0.00,,,0.00,Wunderground v.1.15,2013-02-02 13:26:00,
2013-02-02 08:28:00,58.4,58.4,30.17,NNE,21,2.0,5.0,100,0.00,,,0.00,Wunderground v.1.15,2013-02-02 13:28:00,
2013-02-02 08:30:00,58.6,58.6,30.17,NNE,16,2.0,2.0,100,0.00,,,0.00,Wunderground v.1.15,2013-02-02 13:30:00,
2013-02-02 08:31:00,58.7,58.7,30.17,North,356,3.0,5.0,100,0.00,,,0.00,Wunderground v.1.15,2013-02-02 13:31:00,
2013-02-02 08:32:00,58.9,58.9,30.17,North,356,3.0,5.0,100,0.00,,,0.00,Wunderground v.1.15,2013-02-02 13:32:00,
2013-02-02 08:36:00,59.3,59.3,30.17,North,11,3.0,5.0,100,0.00,,,0.00,Wunderground v.1.15,2013-02-02 13:36:00,
2013-02-02 08:37:00,59.5,59.5,30.17,North,11,3.0,5.0,100,0.00,,,0.00,Wunderground v.1.15,2013-02-02 13:37:00,
2013-02-02 08:38:00,59.5,59.5,30.17,North,11,3.0,5.0,100,0.00,,,0.00,Wunderground v.1.15,2013-02-02 13:38:00,
2013-02-02 08:40:00,59.8,59.8,30.17,North,11,3.0,4.0,100,0.00,,,0.00,Wunderground v.1.15,2013-02-02 13:40:00,
2013-02-02 08:42:00,59.9,59.9,30.17,North,0,3.0,4.0,100,0.00,,,0.00,Wunderground v.1.15,2013-02-02 13:42:00,
2013-02-02 08:43:00,59.9,59.9,30.17,North,4,3.0,4.0,100,0.00,,,0.00,Wunderground v.1.15,2013-02-02 13:43:00,
2013-02-02 08:47:00,60.2,60.2,30.18,NNE,16,3.0,7.0,100,0.00,,,0.00,Wunderground v.1.15,2013-02-02 13:47:00,
2013-02-02 08:48:00,60.4,60.4,30.18,NNE,16,3.0,7.0,100,0.00,,,0.00,Wunderground v.1.15,2013-02-02 13:48:00,
2013-02-02 08:53:00,60.9,60.9,30.18,North,11,3.0,4.0,100,0.00,,,0.00,Wunderground v.1.15,2013-02-02 13:53:00,
2013-02-02 08:54:00,61.0,61.0,30.18,North,11,3.0,4.0,100,0.00,,,0.00,Wunderground v.1.15,2013-02-02 13:54:00,
2013-02-02 08:55:00,61.2,61.2,30.18,North,11,3.0,4.0,100,0.00,,,0.00,Wunderground v.1.15,2013-02-02 13:55:00,
2013-02-02 08:56:00,61.3,61.3,30.18,NNE,13,3.0,4.0,100,0.00,,,0.00,Wunderground v.1.15,2013-02-02 13:56:00,
2013-02-02 08:58:00,61.6,61.6,30.18,North,11,2.0,4.0,100,0.00,,,0.00,Wunderground v.1.15,2013-02-02 13:58:00,
2013-02-02 09:01:00,62.0,-99.9,30.18,NNE,14,2.0,2.0,0,0.00,,,0.00,Wunderground v.1.15,2013-02-02 14:01:00,
2013-02-02 09:02:00,62.3,-99.9,30.18,NNE,16,2.0,2.0,0,0.00,,,0.00,Wunderground v.1.15,2013-02-02 14:02:00,
2013-02-02 09:05:00,62.6,-99.9,30.18,NNE,14,2.0,2.0,0,0.00,,,0.00,Wunderground v.1.15,2013-02-02 14:05:00,
2013-02-02 09:07:00,62.9,62.9,30.18,NNE,14,2.0,2.0,100,0.00,,,0.00,Wunderground v.1.15,2013-02-02 14:07:00,
2013-02-02 09:09:00,63.1,-99.9,30.18,North,356,1.0,5.0,0,0.00,,,0.00,Wunderground v.1.15,2013-02-02 14:09:00,
2013-02-02 09:13:00,63.1,-99.9,30.18,North,357,2.0,5.0,0,0.00,,,0.00,Wunderground v.1.15,2013-02-02 14:13:00,
2013-02-02 09:14:00,63.2,-99.9,30.18,North,357,3.0,5.0,0,0.00,,,0.00,Wunderground v.1.15,2013-02-02 14:14:00,
2013-02-02 09:16:00,63.2,-99.9,30.17,North,357,3.0,5.0,0,0.00,,,0.00,Wunderground v.1.15,2013-02-02 14:16:00,
2013-02-02 09:19:00,63.2,63.2,30.17,NNE,18,3.0,7.0,100,0.00,,,0.00,Wunderground v.1.15,2013-02-02 14:19:00,
2013-02-02 09:21:00,63.2,-99.9,30.17,NNE,16,3.0,3.0,0,0.00,,,0.00,Wunderground v.1.15,2013-02-02 14:21:00,
2013-02-02 09:24:00,63.4,-99.9,30.17,NNE,18,3.0,3.0,0,0.00,,,0.00,Wunderground v.1.15,2013-02-02 14:24:00,
2013-02-02 09:25:00,63.4,-99.9,30.17,NNE,18,3.0,3.0,0,0.00,,,0.00,Wunderground v.1.15,2013-02-02 14:25:00,
2013-02-02 09:30:00,64.0,-99.9,30.17,NNE,21,2.0,2.0,0,0.00,,,0.00,Wunderground v.1.15,2013-02-02 14:30:00,
2013-02-02 09:32:00,64.2,-99.9,30.17,NNE,21,2.0,5.0,0,0.00,,,0.00,Wunderground v.1.15,2013-02-02 14:32:00,
2013-02-02 09:33:00,64.3,-99.9,30.17,NNE,21,2.0,5.0,0,0.00,,,0.00,Wunderground v.1.15,2013-02-02 14:33:00,
2013-02-02 09:36:00,64.7,64.7,30.17,NNE,21,2.0,5.0,100,0.00,,,0.00,Wunderground v.1.15,2013-02-02 14:36:00,
2013-02-02 09:37:00,64.8,64.8,30.17,NNE,21,2.0,5.0,100,0.00,,,0.00,Wunderground v.1.15,2013-02-02 14:37:00,
2013-02-02 09:38:00,65.0,-99.9,30.17,North,3,2.0,5.0,0,0.00,,,0.00,Wunderground v.1.15,2013-02-02 14:38:00,
2013-02-02 09:39:00,65.0,-99.9,30.17,North,1,2.0,5.0,0,0.00,,,0.00,Wunderground v.1.15,2013-02-02 14:39:00,
2013-02-02 09:43:00,65.3,65.3,30.17,North,1,2.0,3.0,100,0.00,,,0.00,Wunderground v.1.15,2013-02-02 14:43:00,
2013-02-02 09:44:00,65.5,65.5,30.17,North,1,2.0,3.0,100,0.00,,,0.00,Wunderground v.1.15,2013-02-02 14:44:00,
2013-02-02 09:45:00,65.6,65.6,30.17,North,7,2.0,3.0,100,0.00,,,0.00,Wunderground v.1.15,2013-02-02 14:45:00,
2013-02-02 09:47:00,65.8,65.8,30.17,North,7,2.0,4.0,100,0.00,,,0.00,Wunderground v.1.15,2013-02-02 14:47:00,
2013-02-02 09:50:00,66.3,66.3,30.17,NNE,14,2.0,2.0,100,0.00,,,0.00,Wunderground v.1.15,2013-02-02 14:50:00,
2013-02-02 09:51:00,66.3,66.3,30.17,NNE,14,2.0,2.0,100,0.00,,,0.00,Wunderground v.1.15,2013-02-02 14:51:00,
2013-02-02 09:53:00,66.6,66.6,30.17,NNE,14,1.0,2.0,100,0.00,,,0.00,Wunderground v.1.15,2013-02-02 14:53:00,
2013-02-02 09:55:00,66.9,-99.9,30.17,NNE,14,1.0,2.0,0,0.00,,,0.00,Wunderground v.1.15,2013-02-02 14:55:00,
2013-02-02 09:56:00,66.9,66.9,30.17,NNE,14,1.0,2.0,100,0.00,,,0.00,Wunderground v.1.15,2013-02-02 14:56:00,
2013-02-02 09:58:00,67.3,67.3,30.17,NNE,16,1.0,2.0,100,0.00,,,0.00,Wunderground v.1.15,2013-02-02 14:58:00,
2013-02-02 10:00:00,67.6,67.6,30.17,NNE,16,1.0,1.0,100,0.00,,,0.00,Wunderground v.1.15,2013-02-02 15:00:00,
2013-02-02 10:02:00,67.9,67.9,30.17,NNE,16,1.0,1.0,100,0.00,,,0.00,Wunderground v.1.15,2013-02-02 15:02:00,
2013-02-02 10:03:00,68.1,-99.9,30.17,NNE,23,1.0,1.0,0,0.00,,,0.00,Wunderground v.1.15,2013-02-02 15:03:00,
2013-02-02 10:04:00,68.1,-99.9,30.17,NE,35,1.0,1.0,0,0.00,,,0.00,Wunderground v.1.15,2013-02-02 15:04:00,
2013-02-02 10:09:00,68.9,-99.9,30.17,NNE,32,1.0,3.0,0,0.00,,,0.00,Wunderground v.1.15,2013-02-02 15:09:00,
2013-02-02 10:10:00,69.1,-99.9,30.17,NNE,32,1.0,1.0,0,0.00,,,0.00,Wunderground v.1.15,2013-02-02 15:10:00,
2013-02-02 10:11:00,69.1,69.1,30.17,NNE,30,1.0,3.0,100,0.00,,,0.00,Wunderground v.1.15,2013-02-02 15:11:00,
2013-02-02 10:13:00,69.1,69.1,30.17,North,7,1.0,5.0,100,0.00,,,0.00,Wunderground v.1.15,2013-02-02 15:13:00,
2013-02-02 10:16:00,69.3,69.3,30.17,East,85,1.0,5.0,100,0.00,,,0.00,Wunderground v.1.15,2013-02-02 15:16:00,
2013-02-02 10:17:00,69.3,69.3,30.17,East,80,1.0,5.0,100,0.00,,,0.00,Wunderground v.1.15,2013-02-02 15:17:00,
2013-02-02 10:20:00,69.6,69.6,30.17,ENE,78,1.0,1.0,100,0.00,,,0.00,Wunderground v.1.15,2013-02-02 15:20:00,
2013-02-02 10:22:00,69.9,69.9,30.17,NNE,21,1.0,1.0,100,0.00,,,0.00,Wunderground v.1.15,2013-02-02 15:22:00,
2013-02-02 10:24:00,70.1,70.1,30.17,NNE,27,1.0,2.0,100,0.00,,,0.00,Wunderground v.1.15,2013-02-02 15:24:00,
2013-02-02 10:27:00,70.4,70.4,30.17,NNE,25,1.0,2.0,100,0.00,,,0.00,Wunderground v.1.15,2013-02-02 15:27:00,
2013-02-02 10:29:00,70.4,70.4,30.17,East,80,1.0,5.0,100,0.00,,,0.00,Wunderground v.1.15,2013-02-02 15:29:00,
2013-02-02 10:34:00,70.8,70.8,30.17,East,83,1.0,4.0,100,0.00,,,0.00,Wunderground v.1.15,2013-02-02 15:34:00,
2013-02-02 10:35:00,70.9,70.9,30.17,East,83,1.0,4.0,100,0.00,,,0.00,Wunderground v.1.15,2013-02-02 15:35:00,
2013-02-02 10:38:00,71.5,71.5,30.17,ESE,120,1.0,5.0,100,0.00,,,0.00,Wunderground v.1.15,2013-02-02 15:38:00,
2013-02-02 10:40:00,71.8,71.8,30.17,ENE,65,1.0,1.0,100,0.00,,,0.00,Wunderground v.1.15,2013-02-02 15:40:00,
2013-02-02 10:43:00,71.8,71.8,30.17,NNE,31,1.0,3.0,100,0.00,,,0.00,Wunderground v.1.15,2013-02-02 15:43:00,
2013-02-02 10:45:00,71.8,71.8,30.17,East,83,1.0,3.0,100,0.00,,,0.00,Wunderground v.1.15,2013-02-02 15:45:00,
2013-02-02 10:46:00,71.8,71.8,30.16,East,83,1.0,3.0,100,0.00,,,0.00,Wunderground v.1.15,2013-02-02 15:46:00,
2013-02-02 10:48:00,72.0,72.0,30.16,East,88,1.0,3.0,100,0.00,,,0.00,Wunderground v.1.15,2013-02-02 15:48:00,
2013-02-02 10:51:00,72.3,72.3,30.16,East,93,2.0,5.0,100,0.00,,,0.00,Wunderground v.1.15,2013-02-02 15:51:00,
2013-02-02 10:52:00,72.3,72.3,30.16,East,89,2.0,5.0,100,0.00,,,0.00,Wunderground v.1.15,2013-02-02 15:52:00,
2013-02-02 10:53:00,72.3,72.3,30.16,ENE,71,2.0,5.0,100,0.00,,,0.00,Wunderground v.1.15,2013-02-02 15:53:00,
2013-02-02 10:55:00,72.5,72.5,30.16,ENE,65,1.0,5.0,100,0.00,,,0.00,Wunderground v.1.15,2013-02-02 15:55:00,
2013-02-02 10:57:00,72.5,72.5,30.16,ENE,65,1.0,5.0,100,0.00,,,0.00,Wunderground v.1.15,2013-02-02 15:57:00,
2013-02-02 10:58:00,72.5,72.5,30.16,ENE,65,1.0,5.0,100,0.00,,,0.00,Wunderground v.1.15,2013-02-02 15:58:00,
2013-02-02 11:00:00,72.3,72.3,30.15,ENE,65,1.0,1.0,100,0.00,,,0.00,Wunderground v.1.15,2013-02-02 16:00:00,
2013-02-02 11:02:00,72.0,72.0,30.15,NE,54,1.0,3.0,100,0.00,,,0.00,Wunderground v.1.15,2013-02-02 16:02:00,
2013-02-02 11:03:00,71.8,71.8,30.15,ESE,103,1.0,6.0,100,0.00,,,0.00,Wunderground v.1.15,2013-02-02 16:03:00,
2013-02-02 11:04:00,71.8,71.8,30.15,East,82,1.0,6.0,100,0.00,,,0.00,Wunderground v.1.15,2013-02-02 16:04:00,
2013-02-02 11:09:00,71.8,71.8,30.15,East,90,3.0,9.0,100,0.00,,,0.00,Wunderground v.1.15,2013-02-02 16:09:00,
2013-02-02 11:10:00,71.8,71.8,30.15,East,92,4.0,4.0,100,0.00,,,0.00,Wunderground v.1.15,2013-02-02 16:10:00,
2013-02-02 11:11:00,71.8,71.8,30.15,SE,124,4.0,5.0,100,0.00,,,0.00,Wunderground v.1.15,2013-02-02 16:11:00,
2013-02-02 11:16:00,72.1,72.1,30.15,East,85,4.0,6.0,100,0.00,,,0.00,Wunderground v.1.15,2013-02-02 16:16:00,
2013-02-02 11:17:00,72.1,72.1,30.15,East,88,4.0,6.0,100,0.00,,,0.00,Wunderground v.1.15,2013-02-02 16:17:00,
2013-02-02 11:18:00,72.1,72.1,30.15,ESE,109,4.0,6.0,100,0.00,,,0.00,Wunderground v.1.15,2013-02-02 16:18:00,
2013-02-02 11:20:00,72.1,72.1,30.15,ESE,114,3.0,5.0,100,0.00,,,0.00,Wunderground v.1.15,2013-02-02 16:20:00,
2013-02-02 11:22:00,71.8,71.8,30.15,SE,133,3.0,8.0,100,0.00,,,0.00,Wunderground v.1.15,2013-02-02 16:22:00,
2013-02-02 11:24:00,71.8,71.8,30.15,ESE,109,4.0,8.0,100,0.00,,,0.00,Wunderground v.1.15,2013-02-02 16:24:00,
2013-02-02 11:26:00,72.1,72.1,30.15,East,89,3.0,8.0,100,0.00,,,0.00,Wunderground v.1.15,2013-02-02 16:26:00,
2013-02-02 11:28:00,72.3,72.3,30.15,East,86,3.0,8.0,100,0.00,,,0.00,Wunderground v.1.15,2013-02-02 16:28:00,
2013-02-02 11:30:00,72.5,72.5,30.14,East,100,3.0,3.0,100,0.00,,,0.00,Wunderground v.1.15,2013-02-02 16:30:00,
2013-02-02 11:33:00,72.8,72.8,30.14,ESE,109,2.0,4.0,100,0.00,,,0.00,Wunderground v.1.15,2013-02-02 16:33:00,
2013-02-02 11:34:00,73.0,73.0,30.14,ENE,68,2.0,5.0,100,0.00,,,0.00,Wunderground v.1.15,2013-02-02 16:34:00,
2013-02-02 11:37:00,73.7,73.7,30.14,ESE,102,2.0,5.0,100,0.00,,,0.00,Wunderground v.1.15,2013-02-02 16:37:00,
2013-02-02 11:39:00,73.9,73.9,30.14,SSE,164,3.0,5.0,100,0.00,,,0.00,Wunderground v.1.15,2013-02-02 16:39:00,
2013-02-02 11:41:00,73.9,73.9,30.14,ESE,110,3.0,3.0,100,0.00,,,0.00,Wunderground v.1.15,2013-02-02 16:41:00,
2013-02-02 11:43:00,73.2,73.2,30.14,East,99,4.0,4.0,100,0.00,,,0.00,Wunderground v.1.15,2013-02-02 16:43:00,
2013-02-02 11:45:00,73.0,73.0,30.14,East,92,4.0,4.0,100,0.00,,,0.00,Wunderground v.1.15,2013-02-02 16:45:00,
2013-02-02 11:47:00,73.0,73.0,30.13,SSE,165,4.0,6.0,100,0.00,,,0.00,Wunderground v.1.15,2013-02-02 16:47:00,
2013-02-02 11:49:00,73.0,73.0,30.13,SE,130,4.0,6.0,100,0.00,,,0.00,Wunderground v.1.15,2013-02-02 16:49:00,
2013-02-02 11:50:00,73.0,73.0,30.13,SSE,161,4.0,4.0,100,0.00,,,0.00,Wunderground v.1.15,2013-02-02 16:50:00,
2013-02-02 11:54:00,72.7,72.7,30.13,ENE,64,4.0,8.0,100,0.00,,,0.00,Wunderground v.1.15,2013-02-02 16:54:00,
2013-02-02 11:55:00,72.8,72.8,30.13,SE,130,4.0,8.0,100,0.00,,,0.00,Wunderground v.1.15,2013-02-02 16:55:00,
2013-02-02 11:56:00,73.0,73.0,30.13,SE,128,4.0,8.0,100,0.00,,,0.00,Wunderground v.1.15,2013-02-02 16:56:00,
2013-02-02 11:59:00,73.0,73.0,30.13,SSE,157,4.0,8.0,100,0.00,,,0.00,Wunderground v.1.15,2013-02-02 16:59:00,
2013-02-02 12:00:00,73.2,73.2,30.13,East,99,4.0,4.0,100,0.00,,,0.00,Wunderground v.1.15,2013-02-02 17:00:00,
2013-02-02 12:02:00,73.2,73.2,30.13,ESE,107,5.0,7.0,100,0.00,,,0.00,Wunderground v.1.15,2013-02-02 17:02:00,
2013-02-02 12:03:00,73.2,73.2,30.13,ESE,104,4.0,7.0,100,0.00,,,0.00,Wunderground v.1.15,2013-02-02 17:03:00,
2013-02-02 12:07:00,72.5,72.5,30.13,East,95,4.0,8.0,100,0.00,,,0.00,Wunderground v.1.15,2013-02-02 17:07:00,
2013-02-02 12:09:00,72.3,72.3,30.13,ESE,113,3.0,8.0,100,0.00,,,0.00,Wunderground v.1.15,2013-02-02 17:09:00,
2013-02-02 12:14:00,71.8,71.8,30.13,NE,55,3.0,6.0,100,0.00,,,0.00,Wunderground v.1.15,2013-02-02 17:14:00,
2013-02-02 12:15:00,71.6,71.6,30.13,ENE,61,3.0,6.0,100,0.00,,,0.00,Wunderground v.1.15,2013-02-02 17:15:00,
2013-02-02 12:17:00,71.6,71.6,30.12,East,99,3.0,6.0,100,0.00,,,0.00,Wunderground v.1.15,2013-02-02 17:17:00,
2013-02-02 12:18:00,71.8,71.8,30.12,ESE,102,3.0,6.0,100,0.00,,,0.00,Wunderground v.1.15,2013-02-02 17:18:00,
2013-02-02 12:21:00,72.3,72.3,30.12,SE,144,2.0,7.0,100,0.00,,,0.00,Wunderground v.1.15,2013-02-02 17:21:00,
2013-02-02 12:23:00,72.1,72.1,30.12,ESE,113,3.0,9.0,100,0.00,,,0.00,Wunderground v.1.15,2013-02-02 17:23:00,
2013-02-02 12:24:00,72.3,72.3,30.12,ESE,112,4.0,9.0,100,0.00,,,0.00,Wunderground v.1.15,2013-02-02 17:24:00,
2013-02-02 12:26:00,72.7,72.7,30.12,ESE,117,5.0,9.0,100,0.00,,,0.00,Wunderground v.1.15,2013-02-02 17:26:00,
2013-02-02 12:29:00,73.0,73.0,30.12,East,100,5.0,9.0,100,0.00,,,0.00,Wunderground v.1.15,2013-02-02 17:29:00,
2013-02-02 12:31:00,73.0,73.0,30.11,ESE,107,4.0,5.0,100,0.00,,,0.00,Wunderground v.1.15,2013-02-02 17:31:00,
2013-02-02 12:32:00,73.0,73.0,30.11,ESE,117,4.0,5.0,100,0.00,,,0.00,Wunderground v.1.15,2013-02-02 17:32:00,
2013-02-02 12:36:00,73.5,73.5,30.11,East,96,4.0,6.0,100,0.00,,,0.00,Wunderground v.1.15,2013-02-02 17:36:00,
2013-02-02 12:37:00,73.5,73.5,30.11,East,100,4.0,6.0,100,0.00,,,0.00,Wunderground v.1.15,2013-02-02 17:37:00,
2013-02-02 12:38:00,73.5,73.5,30.11,East,82,4.0,6.0,100,0.00,,,0.00,Wunderground v.1.15,2013-02-02 17:38:00,
2013-02-02 12:41:00,73.9,73.9,30.11,ESE,104,5.0,5.0,100,0.00,,,0.00,Wunderground v.1.15,2013-02-02 17:41:00,
2013-02-02 12:43:00,73.9,73.9,30.11,East,99,4.0,6.0,100,0.00,,,0.00,Wunderground v.1.15,2013-02-02 17:43:00,
2013-02-02 12:44:00,73.7,73.7,30.11,ENE,76,5.0,7.0,100,0.00,,,0.00,Wunderground v.1.15,2013-02-02 17:44:00,
2013-02-02 12:46:00,73.7,73.7,30.11,East,89,4.0,7.0,100,0.00,,,0.00,Wunderground v.1.15,2013-02-02 17:46:00,
2013-02-02 12:51:00,74.4,74.4,30.11,ENE,68,4.0,4.0,100,0.00,,,0.00,Wunderground v.1.15,2013-02-02 17:51:00,
2013-02-02 12:52:00,74.6,74.6,30.11,ESE,106,4.0,4.0,100,0.00,,,0.00,Wunderground v.1.15,2013-02-02 17:52:00,
2013-02-02 12:54:00,74.6,74.6,30.11,ENE,69,3.0,5.0,100,0.00,,,0.00,Wunderground v.1.15,2013-02-02 17:54:00,
2013-02-02 12:56:00,74.7,74.7,30.11,SE,127,3.0,5.0,100,0.00,,,0.00,Wunderground v.1.15,2013-02-02 17:56:00,
2013-02-02 12:57:00,74.9,74.9,30.11,SE,127,3.0,5.0,100,0.00,,,0.00,Wunderground v.1.15,2013-02-02 17:57:00,
2013-02-02 13:00:00,75.3,75.3,30.11,SE,138,3.0,3.0,100,0.00,,,0.00,Wunderground v.1.15,2013-02-02 18:00:00,
2013-02-02 13:01:00,75.1,75.1,30.10,ESE,110,3.0,3.0,100,0.00,,,0.00,Wunderground v.1.15,2013-02-02 18:01:00,
2013-02-02 13:02:00,75.1,75.1,30.10,ESE,110,3.0,3.0,100,0.00,,,0.00,Wunderground v.1.15,2013-02-02 18:02:00,
2013-02-02 13:03:00,75.1,75.1,30.10,ESE,110,3.0,3.0,100,0.00,,,0.00,Wunderground v.1.15,2013-02-02 18:03:00,
2013-02-02 13:08:00,75.4,75.4,30.10,ESE,106,3.0,3.0,100,0.00,,,0.00,Wunderground v.1.15,2013-02-02 18:08:00,
2013-02-02 13:09:00,75.6,75.6,30.10,ESE,113,3.0,4.0,100,0.00,,,0.00,Wunderground v.1.15,2013-02-02 18:09:00,
2013-02-02 13:11:00,75.6,75.6,30.10,SSE,148,3.0,6.0,100,0.00,,,0.00,Wunderground v.1.15,2013-02-02 18:11:00,
2013-02-02 13:15:00,75.6,75.6,30.10,East,85,3.0,7.0,100,0.00,,,0.00,Wunderground v.1.15,2013-02-02 18:15:00,
2013-02-02 13:17:00,75.4,75.4,30.10,SE,127,4.0,7.0,100,0.00,,,0.00,Wunderground v.1.15,2013-02-02 18:17:00,
2013-02-02 13:20:00,75.6,75.6,30.10,SSW,198,4.0,6.0,100,0.00,,,0.00,Wunderground v.1.15,2013-02-02 18:20:00,
2013-02-02 13:23:00,75.1,75.1,30.10,ESE,103,4.0,7.0,100,0.00,,,0.00,Wunderground v.1.15,2013-02-02 18:23:00,
2013-02-02 13:25:00,75.1,75.1,30.10,East,89,3.0,7.0,100,0.00,,,0.00,Wunderground v.1.15,2013-02-02 18:25:00,
2013-02-02 13:28:00,74.7,74.7,30.10,SE,124,3.0,7.0,100,0.00,,,0.00,Wunderground v.1.15,2013-02-02 18:28:00,
2013-02-02 13:29:00,74.7,74.7,30.10,SE,128,2.0,7.0,100,0.00,,,0.00,Wunderground v.1.15,2013-02-02 18:29:00,
2013-02-02 13:30:00,74.6,74.6,30.10,East,100,2.0,3.0,100,0.00,,,0.00,Wunderground v.1.15,2013-02-02 18:30:00,
2013-02-02 13:33:00,74.6,74.6,30.09,ESE,114,3.0,6.0,100,0.00,,,0.00,Wunderground v.1.15,2013-02-02 18:33:00,
2013-02-02 13:35:00,74.9,74.9,30.09,East,97,3.0,6.0,100,0.00,,,0.00,Wunderground v.1.15,2013-02-02 18:35:00,
2013-02-02 13:37:00,74.9,74.9,30.09,East,92,3.0,7.0,100,0.00,,,0.00,Wunderground v.1.15,2013-02-02 18:37:00,
2013-02-02 13:40:00,74.4,74.4,30.09,ENE,78,4.0,4.0,100,0.00,,,0.00,Wunderground v.1.15,2013-02-02 18:40:00,
2013-02-02 13:41:00,74.2,74.2,30.09,ENE,78,3.0,4.0,100,0.00,,,0.00,Wunderground v.1.15,2013-02-02 18:41:00,
2013-02-02 13:43:00,74.0,74.0,30.09,NNE,18,2.0,4.0,100,0.00,,,0.00,Wunderground v.1.15,2013-02-02 18:43:00,
2013-02-02 13:44:00,74.0,74.0,30.09,North,3,2.0,5.0,100,0.00,,,0.00,Wunderground v.1.15,2013-02-02 18:44:00,
2013-02-02 13:49:00,74.4,74.4,30.08,East,85,2.0,5.0,100,0.00,,,0.00,Wunderground v.1.15,2013-02-02 18:49:00,
2013-02-02 13:50:00,74.4,74.4,30.08,NE,56,2.0,2.0,100,0.00,,,0.00,Wunderground v.1.15,2013-02-02 18:50:00,
2013-02-02 13:52:00,74.4,74.4,30.08,ESE,114,3.0,3.0,100,0.00,,,0.00,Wunderground v.1.15,2013-02-02 18:52:00,
2013-02-02 13:54:00,74.7,74.7,30.08,ESE,116,3.0,6.0,100,0.00,,,0.00,Wunderground v.1.15,2013-02-02 18:54:00,
2013-02-02 13:56:00,74.4,74.4,30.08,East,97,3.0,6.0,100,0.00,,,0.00,Wunderground v.1.15,2013-02-02 18:56:00,
2013-02-02 13:57:00,74.6,74.6,30.08,ESE,123,3.0,6.0,100,0.00,,,0.00,Wunderground v.1.15,2013-02-02 18:57:00,
2013-02-02 14:01:00,74.7,74.7,30.08,East,95,3.0,3.0,100,0.00,,,0.00,Wunderground v.1.15,2013-02-02 19:01:00,
2013-02-02 14:03:00,74.9,74.9,30.08,East,97,2.0,4.0,100,0.00,,,0.00,Wunderground v.1.15,2013-02-02 19:03:00,
2013-02-02 14:06:00,74.0,74.0,30.08,East,93,3.0,4.0,100,0.00,,,0.00,Wunderground v.1.15,2013-02-02 19:06:00,
2013-02-02 14:07:00,73.9,73.9,30.08,ESE,102,3.0,4.0,100,0.00,,,0.00,Wunderground v.1.15,2013-02-02 19:07:00,
2013-02-02 14:08:00,73.9,73.9,30.08,ESE,102,3.0,4.0,100,0.00,,,0.00,Wunderground v.1.15,2013-02-02 19:08:00,
2013-02-02 14:09:00,73.9,73.9,30.08,East,99,2.0,4.0,100,0.00,,,0.00,Wunderground v.1.15,2013-02-02 19:09:00,
2013-02-02 14:12:00,73.7,73.7,30.08,SSE,165,2.0,2.0,100,0.00,,,0.00,Wunderground v.1.15,2013-02-02 19:12:00,
2013-02-02 14:13:00,73.7,73.7,30.08,South,172,2.0,6.0,100,0.00,,,0.00,Wunderground v.1.15,2013-02-02 19:13:00,
2013-02-02 14:16:00,73.9,73.9,30.07,South,174,2.0,6.0,100,0.00,,,0.00,Wunderground v.1.15,2013-02-02 19:16:00,
2013-02-02 14:17:00,74.0,74.0,30.07,South,174,2.0,6.0,100,0.00,,,0.00,Wunderground v.1.15,2013-02-02 19:17:00,
2013-02-02 14:21:00,74.0,74.0,30.07,SE,131,3.0,5.0,100,0.00,,,0.00,Wunderground v.1.15,2013-02-02 19:21:00,
2013-02-02 14:22:00,74.0,74.0,30.07,SSE,150,3.0,5.0,100,0.00,,,0.08,Wunderground v.1.15,2013-02-02 19:22:00,
2013-02-02 14:23:00,73.9,73.9,30.07,SE,130,3.0,5.0,100,0.50,,,0.08,Wunderground v.1.15,2013-02-02 19:23:00,
2013-02-02 14:26:00,73.7,73.7,30.07,ESE,107,3.0,5.0,100,0.15,,,0.08,Wunderground v.1.15,2013-02-02 19:26:00,
2013-02-02 14:28:00,73.3,73.3,30.07,ESE,107,3.0,5.0,100,0.51,,,0.14,Wunderground v.1.15,2013-02-02 19:28:00,
2013-02-02 14:31:00,73.2,73.2,30.07,ESE,107,2.0,2.0,100,0.14,,,0.14,Wunderground v.1.15,2013-02-02 19:31:00,
2013-02-02 14:33:00,73.3,73.3,30.07,ESE,104,1.0,2.0,100,0.09,,,0.14,Wunderground v.1.15,2013-02-02 19:33:00,
2013-02-02 14:34:00,73.7,73.7,30.07,NE,41,1.0,2.0,100,0.08,,,0.14,Wunderground v.1.15,2013-02-02 19:34:00,
2013-02-02 14:36:00,73.9,73.9,30.07,ESE,110,1.0,2.0,100,0.06,,,0.14,Wunderground v.1.15,2013-02-02 19:36:00,
2013-02-02 14:40:00,74.6,74.6,30.07,East,88,1.0,5.0,100,0.05,,,0.14,Wunderground v.1.15,2013-02-02 19:40:00,
2013-02-02 14:41:00,74.6,74.6,30.07,East,89,1.0,5.0,100,0.04,,,0.14,Wunderground v.1.15,2013-02-02 19:41:00,
2013-02-02 14:42:00,74.7,74.7,30.07,ESE,104,2.0,5.0,100,0.04,,,0.14,Wunderground v.1.15,2013-02-02 19:42:00,
2013-02-02 14:47:00,74.6,74.6,30.07,ESE,110,2.0,7.0,100,0.00,,,0.14,Wunderground v.1.15,2013-02-02 19:47:00,
2013-02-02 14:48:00,74.6,74.6,30.07,ENE,69,2.0,7.0,100,0.00,,,0.14,Wunderground v.1.15,2013-02-02 19:48:00,
2013-02-02 14:49:00,74.4,74.4,30.07,ENE,69,2.0,7.0,100,0.00,,,0.14,Wunderground v.1.15,2013-02-02 19:49:00,
2013-02-02 14:51:00,73.9,73.9,30.07,East,96,2.0,2.0,100,0.00,,,0.14,Wunderground v.1.15,2013-02-02 19:51:00,
2013-02-02 14:53:00,73.9,73.9,30.07,ESE,113,3.0,4.0,100,0.00,,,0.14,Wunderground v.1.15,2013-02-02 19:53:00,
2013-02-02 14:54:00,73.7,73.7,30.07,ESE,106,3.0,6.0,100,0.00,,,0.14,Wunderground v.1.15,2013-02-02 19:54:00,
2013-02-02 14:57:00,73.5,73.5,30.07,ENE,61,3.0,6.0,100,0.00,,,0.14,Wunderground v.1.15,2013-02-02 19:57:00,
2013-02-02 14:58:00,73.7,73.7,30.07,ENE,61,2.0,6.0,100,0.00,,,0.14,Wunderground v.1.15,2013-02-02 19:58:00,
2013-02-02 14:59:00,73.9,73.9,30.07,NNE,18,2.0,6.0,100,0.00,,,0.14,Wunderground v.1.15,2013-02-02 19:59:00,
2013-02-02 15:03:00,73.9,73.9,30.07,SSE,150,2.0,2.0,100,0.00,,,0.14,Wunderground v.1.15,2013-02-02 20:03:00,
2013-02-02 15:05:00,73.9,73.9,30.07,SE,124,2.0,4.0,100,0.00,,,0.14,Wunderground v.1.15,2013-02-02 20:05:00,
2013-02-02 15:06:00,73.9,73.9,30.07,ESE,113,2.0,4.0,100,0.00,,,0.14,Wunderground v.1.15,2013-02-02 20:06:00,
2013-02-02 15:07:00,73.9,73.9,30.07,ESE,113,2.0,4.0,100,0.00,,,0.14,Wunderground v.1.15,2013-02-02 20:07:00,
2013-02-02 15:08:00,74.0,74.0,30.07,ESE,113,2.0,4.0,100,0.00,,,0.14,Wunderground v.1.15,2013-02-02 20:08:00,
2013-02-02 15:12:00,74.2,74.2,30.07,East,97,2.0,3.0,100,0.00,,,0.14,Wunderground v.1.15,2013-02-02 20:12:00,
2013-02-02 15:13:00,74.2,74.2,30.07,East,97,2.0,3.0,100,0.00,,,0.14,Wunderground v.1.15,2013-02-02 20:13:00,
2013-02-02 15:15:00,74.4,74.4,30.07,NE,52,1.0,3.0,100,0.00,,,0.14,Wunderground v.1.15,2013-02-02 20:15:00,
2013-02-02 15:16:00,74.4,74.4,30.07,NE,52,1.0,3.0,100,0.00,,,0.14,Wunderground v.1.15,2013-02-02 20:16:00,
2013-02-02 15:18:00,74.6,74.6,30.07,East,88,0.0,4.0,100,0.00,,,0.14,Wunderground v.1.15,2013-02-02 20:18:00,
2013-02-02 15:21:00,74.2,74.2,30.07,SE,126,1.0,4.0,100,0.00,,,0.14,Wunderground v.1.15,2013-02-02 20:21:00,
2013-02-02 15:23:00,74.2,74.2,30.07,SE,126,1.0,4.0,100,0.00,,,0.14,Wunderground v.1.15,2013-02-02 20:23:00,
2013-02-02 15:24:00,74.2,74.2,30.07,SE,124,1.0,4.0,100,0.00,,,0.14,Wunderground v.1.15,2013-02-02 20:24:00,
2013-02-02 15:25:00,73.9,73.9,30.07,ESE,113,1.0,4.0,100,0.00,,,0.14,Wunderground v.1.15,2013-02-02 20:25:00,
2013-02-02 15:28:00,73.5,73.5,30.07,ESE,112,1.0,4.0,100,0.00,,,0.14,Wunderground v.1.15,2013-02-02 20:28:00,
2013-02-02 15:30:00,73.3,73.3,30.07,ESE,112,1.0,1.0,100,0.00,,,0.14,Wunderground v.1.15,2013-02-02 20:30:00,
2013-02-02 15:31:00,73.3,73.3,30.06,East,95,1.0,2.0,100,0.00,,,0.14,Wunderground v.1.15,2013-02-02 20:31:00,
2013-02-02 15:32:00,73.2,73.2,30.06,East,95,1.0,2.0,100,0.00,,,0.14,Wunderground v.1.15,2013-02-02 20:32:00,
2013-02-02 15:37:00,72.8,72.8,30.06,East,95,1.0,2.0,100,0.00,,,0.14,Wunderground v.1.15,2013-02-02 20:37:00,
2013-02-02 15:39:00,72.7,72.7,30.06,East,95,1.0,2.0,100,0.00,,,0.14,Wunderground v.1.15,2013-02-02 20:39:00,
2013-02-02 15:41:00,72.7,72.7,30.06,East,95,0.0,1.0,100,0.00,,,0.14,Wunderground v.1.15,2013-02-02 20:41:00,
2013-02-02 15:43:00,72.5,72.5,30.06,ENE,78,1.0,5.0,100,0.00,,,0.14,Wunderground v.1.15,2013-02-02 20:43:00,
2013-02-02 15:47:00,71.8,71.8,30.06,ESE,104,2.0,5.0,100,0.00,,,0.14,Wunderground v.1.15,2013-02-02 20:47:00,
2013-02-02 15:48:00,71.8,71.8,30.06,ESE,109,2.0,5.0,100,0.00,,,0.14,Wunderground v.1.15,2013-02-02 20:48:00,
2013-02-02 15:53:00,72.1,72.1,30.06,ESE,116,2.0,3.0,100,0.00,,,0.14,Wunderground v.1.15,2013-02-02 20:53:00,
2013-02-02 15:54:00,72.1,72.1,30.06,East,99,2.0,4.0,100,0.00,,,0.14,Wunderground v.1.15,2013-02-02 20:54:00,
2013-02-02 15:55:00,72.1,72.1,30.06,East,93,2.0,4.0,100,0.00,,,0.14,Wunderground v.1.15,2013-02-02 20:55:00,
2013-02-02 15:58:00,71.8,71.8,30.06,East,93,2.0,4.0,100,0.00,,,0.14,Wunderground v.1.15,2013-02-02 20:58:00,
2013-02-02 15:59:00,72.0,72.0,30.06,East,93,2.0,4.0,100,0.00,,,0.14,Wunderground v.1.15,2013-02-02 20:59:00,
2013-02-02 16:01:00,72.1,72.1,30.06,ESE,103,2.0,2.0,100,0.00,,,0.14,Wunderground v.1.15,2013-02-02 21:01:00,
2013-02-02 16:05:00,72.3,72.3,30.06,SSE,150,2.0,2.0,100,0.00,,,0.14,Wunderground v.1.15,2013-02-02 21:05:00,
2013-02-02 16:06:00,72.3,72.3,30.06,SSE,151,2.0,2.0,100,0.00,,,0.14,Wunderground v.1.15,2013-02-02 21:06:00,
2013-02-02 16:07:00,72.3,72.3,30.06,East,100,2.0,6.0,100,0.00,,,0.14,Wunderground v.1.15,2013-02-02 21:07:00,
2013-02-02 16:10:00,72.3,72.3,30.06,ESE,119,2.0,2.0,100,0.00,,,0.14,Wunderground v.1.15,2013-02-02 21:10:00,
2013-02-02 16:12:00,72.7,72.7,30.06,East,96,2.0,2.0,100,0.00,,,0.14,Wunderground v.1.15,2013-02-02 21:12:00,
2013-02-02 16:13:00,72.7,72.7,30.06,East,93,2.0,3.0,100,0.00,,,0.14,Wunderground v.1.15,2013-02-02 21:13:00,
2013-02-02 16:15:00,72.8,72.8,30.06,SE,124,3.0,4.0,100,0.00,,,0.14,Wunderground v.1.15,2013-02-02 21:15:00,
2013-02-02 16:17:00,73.0,73.0,30.06,ESE,117,3.0,4.0,100,0.00,,,0.14,Wunderground v.1.15,2013-02-02 21:17:00,
2013-02-02 16:20:00,73.5,73.5,30.06,NE,56,2.0,2.0,100,0.00,,,0.14,Wunderground v.1.15,2013-02-02 21:20:00,
2013-02-02 16:23:00,73.5,73.5,30.06,NE,56,1.0,2.0,100,0.00,,,0.14,Wunderground v.1.15,2013-02-02 21:23:00,
2013-02-02 16:24:00,73.7,73.7,30.06,NE,56,1.0,2.0,100,0.00,,,0.14,Wunderground v.1.15,2013-02-02 21:24:00,
2013-02-02 16:26:00,73.7,73.7,30.06,East,85,1.0,2.0,100,0.00,,,0.14,Wunderground v.1.15,2013-02-02 21:26:00,
2013-02-02 16:30:00,73.5,73.5,30.06,East,96,2.0,2.0,100,0.00,,,0.14,Wunderground v.1.15,2013-02-02 21:30:00,
2013-02-02 16:31:00,73.5,73.5,30.06,East,97,2.0,2.0,100,0.00,,,0.14,Wunderground v.1.15,2013-02-02 21:31:00,
2013-02-02 16:32:00,73.5,73.5,30.06,ESE,104,2.0,2.0,100,0.00,,,0.14,Wunderground v.1.15,2013-02-02 21:32:00,
2013-02-02 16:36:00,73.3,73.3,30.06,ESE,109,2.0,5.0,100,0.00,,,0.14,Wunderground v.1.15,2013-02-02 21:36:00,
2013-02-02 16:37:00,73.3,73.3,30.06,ESE,110,2.0,5.0,100,0.00,,,0.14,Wunderground v.1.15,2013-02-02 21:37:00,
2013-02-02 16:38:00,73.3,73.3,30.06,ESE,120,2.0,5.0,100,0.00,,,0.14,Wunderground v.1.15,2013-02-02 21:38:00,
2013-02-02 16:39:00,73.0,73.0,30.06,SE,136,3.0,5.0,100,0.00,,,0.14,Wunderground v.1.15,2013-02-02 21:39:00,
2013-02-02 16:42:00,73.0,73.0,30.06,SE,133,2.0,2.0,100,0.00,,,0.14,Wunderground v.1.15,2013-02-02 21:42:00,
2013-02-02 16:43:00,73.0,73.0,30.06,SE,133,2.0,2.0,100,0.00,,,0.14,Wunderground v.1.15,2013-02-02 21:43:00,
2013-02-02 16:47:00,73.0,73.0,30.06,SE,134,1.0,2.0,100,0.00,,,0.14,Wunderground v.1.15,2013-02-02 21:47:00,
2013-02-02 16:48:00,73.0,73.0,30.06,ESE,107,1.0,2.0,100,0.00,,,0.14,Wunderground v.1.15,2013-02-02 21:48:00,
2013-02-02 16:49:00,72.7,72.7,30.06,East,92,1.0,2.0,100,0.00,,,0.14,Wunderground v.1.15,2013-02-02 21:49:00,
2013-02-02 16:51:00,72.7,72.7,30.06,SSE,147,1.0,7.0,100,0.00,,,0.14,Wunderground v.1.15,2013-02-02 21:51:00,
2013-02-02 16:53:00,72.5,72.5,30.06,SE,127,2.0,7.0,100,0.00,,,0.14,Wunderground v.1.15,2013-02-02 21:53:00,
2013-02-02 16:54:00,72.5,72.5,30.06,SE,127,2.0,7.0,100,0.00,,,0.14,Wunderground v.1.15,2013-02-02 21:54:00,
2013-02-02 16:55:00,72.5,72.5,30.06,SE,131,1.0,7.0,100,0.00,,,0.14,Wunderground v.1.15,2013-02-02 21:55:00,
2013-02-02 16:56:00,72.5,72.5,30.06,SE,133,2.0,7.0,100,0.00,,,0.14,Wunderground v.1.15,2013-02-02 21:56:00,
2013-02-02 16:59:00,72.5,72.5,30.06,SE,138,2.0,7.0,100,0.00,,,0.14,Wunderground v.1.15,2013-02-02 21:59:00,
2013-02-02 17:01:00,72.5,72.5,30.05,ESE,110,2.0,2.0,100,0.00,,,0.14,Wunderground v.1.15,2013-02-02 22:01:00,
2013-02-02 17:03:00,72.3,72.3,30.05,ESE,109,2.0,2.0,100,0.00,,,0.14,Wunderground v.1.15,2013-02-02 22:03:00,
2013-02-02 17:05:00,72.0,72.0,30.05,SE,134,2.0,3.0,100,0.00,,,0.14,Wunderground v.1.15,2013-02-02 22:05:00,
2013-02-02 17:06:00,72.0,72.0,30.05,SE,134,2.0,3.0,100,0.00,,,0.14,Wunderground v.1.15,2013-02-02 22:06:00,
2013-02-02 17:08:00,72.0,72.0,30.05,SE,136,2.0,3.0,100,0.00,,,0.14,Wunderground v.1.15,2013-02-02 22:08:00,
2013-02-02 17:11:00,71.8,71.8,30.05,SE,143,2.0,2.0,100,0.00,,,0.14,Wunderground v.1.15,2013-02-02 22:11:00,
2013-02-02 17:12:00,71.8,71.8,30.05,SE,143,2.0,2.0,100,0.00,,,0.14,Wunderground v.1.15,2013-02-02 22:12:00,
2013-02-02 17:13:00,71.8,71.8,30.05,SE,144,2.0,2.0,100,0.00,,,0.14,Wunderground v.1.15,2013-02-02 22:13:00,
2013-02-02 17:15:00,71.6,71.6,30.05,East,96,2.0,5.0,100,0.00,,,0.14,Wunderground v.1.15,2013-02-02 22:15:00,
2013-02-02 17:19:00,71.5,71.5,30.05,SSE,152,2.0,5.0,100,0.00,,,0.14,Wunderground v.1.15,2013-02-02 22:19:00,
2013-02-02 17:20:00,71.3,71.3,30.05,ESE,106,2.0,2.0,100,0.00,,,0.14,Wunderground v.1.15,2013-02-02 22:20:00,
2013-02-02 17:21:00,71.3,71.3,30.05,ESE,117,2.0,3.0,100,0.00,,,0.14,Wunderground v.1.15,2013-02-02 22:21:00,
2013-02-02 17:22:00,71.1,71.1,30.05,SE,124,3.0,3.0,100,0.00,,,0.14,Wunderground v.1.15,2013-02-02 22:22:00,
2013-02-02 17:25:00,70.9,-99.9,30.05,ESE,112,3.0,3.0,0,0.00,,,0.14,Wunderground v.1.15,2013-02-02 22:25:00,
2013-02-02 17:26:00,70.9,-99.9,30.05,ESE,113,2.0,3.0,0,0.00,,,0.14,Wunderground v.1.15,2013-02-02 22:26:00,
2013-02-02 17:28:00,70.8,-99.9,30.05,ESE,121,2.0,3.0,0,0.00,,,0.14,Wunderground v.1.15,2013-02-02 22:28:00,
2013-02-02 17:30:00,70.8,-99.9,30.05,ESE,121,2.0,2.0,0,0.00,,,0.14,Wunderground v.1.15,2013-02-02 22:30:00,
2013-02-02 17:31:00,70.6,-99.9,30.05,SE,124,2.0,2.0,0,0.00,,,0.14,Wunderground v.1.15,2013-02-02 22:31:00,
2013-02-02 17:33:00,70.6,-99.9,30.05,SE,133,2.0,4.0,0,0.00,,,0.14,Wunderground v.1.15,2013-02-02 22:33:00,
2013-02-02 17:34:00,70.4,-99.9,30.05,SE,130,2.0,4.0,0,0.00,,,0.14,Wunderground v.1.15,2013-02-02 22:34:00,
2013-02-02 17:36:00,70.4,-99.9,30.05,SE,130,2.0,4.0,0,0.00,,,0.14,Wunderground v.1.15,2013-02-02 22:36:00,
2013-02-02 17:40:00,70.3,-99.9,30.05,SE,140,2.0,2.0,0,0.00,,,0.14,Wunderground v.1.15,2013-02-02 22:40:00,
2013-02-02 17:42:00,70.1,-99.9,30.05,SE,140,1.0,2.0,0,0.00,,,0.14,Wunderground v.1.15,2013-02-02 22:42:00,
2013-02-02 17:43:00,70.1,-99.9,30.05,SE,140,1.0,2.0,0,0.00,,,0.14,Wunderground v.1.15,2013-02-02 22:43:00,
2013-02-02 17:48:00,69.9,-99.9,30.05,SE,138,0.0,3.0,0,0.00,,,0.14,Wunderground v.1.15,2013-02-02 22:48:00,
2013-02-02 17:49:00,69.8,-99.9,30.05,SE,138,0.0,3.0,0,0.00,,,0.14,Wunderground v.1.15,2013-02-02 22:49:00,
2013-02-02 17:50:00,69.8,-99.9,30.05,SE,138,0.0,0.0,0,0.00,,,0.14,Wunderground v.1.15,2013-02-02 22:50:00,
2013-02-02 17:53:00,69.6,-99.9,30.05,SE,138,0.0,0.0,0,0.00,,,0.14,Wunderground v.1.15,2013-02-02 22:53:00,
2013-02-02 17:55:00,69.6,-99.9,30.05,SE,138,0.0,0.0,0,0.00,,,0.14,Wunderground v.1.15,2013-02-02 22:55:00,
2013-02-02 17:56:00,69.4,-99.9,30.05,SE,138,0.0,0.0,0,0.00,,,0.14,Wunderground v.1.15,2013-02-02 22:56:00,
2013-02-02 17:58:00,69.4,-99.9,30.05,SE,138,0.0,0.0,0,0.00,,,0.14,Wunderground v.1.15,2013-02-02 22:58:00,
2013-02-02 18:01:00,69.3,-99.9,30.05,SE,138,0.0,0.0,0,0.00,,,0.14,Wunderground v.1.15,2013-02-02 23:01:00,
2013-02-02 18:02:00,69.1,-99.9,30.05,SE,138,0.0,0.0,0,0.00,,,0.14,Wunderground v.1.15,2013-02-02 23:02:00,
2013-02-02 18:03:00,69.1,-99.9,30.05,SE,138,0.0,0.0,0,0.00,,,0.14,Wunderground v.1.15,2013-02-02 23:03:00,
2013-02-02 18:07:00,68.9,-99.9,30.05,SE,138,0.0,0.0,0,0.00,,,0.14,Wunderground v.1.15,2013-02-02 23:07:00,
2013-02-02 18:09:00,68.8,-99.9,30.05,SE,138,0.0,2.0,0,0.00,,,0.14,Wunderground v.1.15,2013-02-02 23:09:00,
2013-02-02 18:11:00,68.6,-99.9,30.05,SE,138,0.0,0.0,0,0.00,,,0.14,Wunderground v.1.15,2013-02-02 23:11:00,
2013-02-02 18:13:00,68.6,-99.9,30.05,SE,138,0.0,0.0,0,0.00,,,0.14,Wunderground v.1.15,2013-02-02 23:13:00,
2013-02-02 18:14:00,68.4,-99.9,30.05,SE,138,0.0,0.0,0,0.00,,,0.14,Wunderground v.1.15,2013-02-02 23:14:00,
2013-02-02 18:15:00,68.4,-99.9,30.05,SE,138,0.0,0.0,0,0.00,,,0.14,Wunderground v.1.15,2013-02-02 23:15:00,
2013-02-02 18:18:00,68.3,-99.9,30.05,SE,138,0.0,0.0,0,0.00,,,0.14,Wunderground v.1.15,2013-02-02 23:18:00,
2013-02-02 18:19:00,68.3,-99.9,30.05,SE,138,0.0,0.0,0,0.00,,,0.14,Wunderground v.1.15,2013-02-02 23:19:00,
2013-02-02 18:21:00,68.1,-99.9,30.05,SE,138,0.0,0.0,0,0.00,,,0.14,Wunderground v.1.15,2013-02-02 23:21:00,
2013-02-02 18:23:00,68.1,-99.9,30.05,SE,138,0.0,0.0,0,0.00,,,0.14,Wunderground v.1.15,2013-02-02 23:23:00,
2013-02-02 18:28:00,67.8,-99.9,30.05,SE,138,0.0,0.0,0,0.00,,,0.14,Wunderground v.1.15,2013-02-02 23:28:00,
2013-02-02 18:29:00,67.8,-99.9,30.05,SE,138,0.0,0.0,0,0.00,,,0.14,Wunderground v.1.15,2013-02-02 23:29:00,
2013-02-02 18:30:00,67.6,-99.9,30.05,SE,138,0.0,0.0,0,0.00,,,0.14,Wunderground v.1.15,2013-02-02 23:30:00,
2013-02-02 18:32:00,67.6,-99.9,30.05,SE,138,0.0,0.0,0,0.00,,,0.14,Wunderground v.1.15,2013-02-02 23:32:00,
2013-02-02 18:34:00,67.4,-99.9,30.05,SE,138,0.0,0.0,0,0.00,,,0.14,Wunderground v.1.15,2013-02-02 23:34:00,
2013-02-02 18:35:00,67.4,-99.9,30.05,SE,138,0.0,0.0,0,0.00,,,0.14,Wunderground v.1.15,2013-02-02 23:35:00,
2013-02-02 18:36:00,67.3,-99.9,30.05,SE,138,0.0,0.0,0,0.00,,,0.14,Wunderground v.1.15,2013-02-02 23:36:00,
2013-02-02 18:38:00,67.3,-99.9,30.05,SE,138,0.0,0.0,0,0.00,,,0.14,Wunderground v.1.15,2013-02-02 23:38:00,
2013-02-02 18:41:00,67.1,-99.9,30.05,SE,138,0.0,0.0,0,0.00,,,0.14,Wunderground v.1.15,2013-02-02 23:41:00,
2013-02-02 18:43:00,67.1,-99.9,30.05,SE,138,0.0,0.0,0,0.00,,,0.14,Wunderground v.1.15,2013-02-02 23:43:00,
2013-02-02 18:44:00,66.9,-99.9,30.05,SE,138,0.0,0.0,0,0.00,,,0.14,Wunderground v.1.15,2013-02-02 23:44:00,
2013-02-02 18:48:00,66.8,-99.9,30.06,SE,138,0.0,0.0,255,0.00,,,0.14,Wunderground v.1.15,2013-02-02 23:48:00,
2013-02-02 18:49:00,66.8,-99.9,30.06,SE,138,0.0,0.0,255,0.00,,,0.14,Wunderground v.1.15,2013-02-02 23:49:00,
2013-02-02 18:50:00,66.8,-99.9,30.06,SE,138,0.0,0.0,255,0.00,,,0.14,Wunderground v.1.15,2013-02-02 23:50:00,
2013-02-02 18:51:00,66.6,-99.9,30.06,SE,138,0.0,0.0,0,0.00,,,0.14,Wunderground v.1.15,2013-02-02 23:51:00,
2013-02-02 18:54:00,66.6,-99.9,30.06,SE,138,0.0,0.0,0,0.00,,,0.14,Wunderground v.1.15,2013-02-02 23:54:00,
2013-02-02 18:55:00,66.4,-99.9,30.06,SE,138,0.0,0.0,0,0.00,,,0.14,Wunderground v.1.15,2013-02-02 23:55:00,
2013-02-02 18:56:00,66.4,-99.9,30.06,SE,138,0.0,0.0,0,0.00,,,0.14,Wunderground v.1.15,2013-02-02 23:56:00,
2013-02-02 18:58:00,66.4,-99.9,30.06,SE,138,0.0,0.0,0,0.00,,,0.14,Wunderground v.1.15,2013-02-02 23:58:00,
2013-02-02 19:01:00,66.3,-99.9,30.05,SE,138,0.0,0.0,0,0.00,,,0.14,Wunderground v.1.15,2013-02-03 00:01:00,
2013-02-02 19:02:00,66.1,-37.6,30.05,SE,138,0.0,0.0,1,0.00,,,0.14,Wunderground v.1.15,2013-02-03 00:02:00,
2013-02-02 19:04:00,66.1,-37.6,30.05,SE,138,0.0,0.0,1,0.00,,,0.14,Wunderground v.1.15,2013-02-03 00:04:00,
2013-02-02 19:08:00,65.8,-25.2,30.05,SE,138,0.0,0.0,2,0.00,,,0.14,Wunderground v.1.15,2013-02-03 00:08:00,
2013-02-02 19:09:00,65.8,-25.2,30.05,SE,138,0.0,0.0,2,0.00,,,0.14,Wunderground v.1.15,2013-02-03 00:09:00,
2013-02-02 19:10:00,65.8,-25.2,30.05,SE,138,0.0,0.0,2,0.00,,,0.14,Wunderground v.1.15,2013-02-03 00:10:00,
2013-02-02 19:11:00,65.8,-17.4,30.05,SE,138,0.0,0.0,3,0.00,,,0.14,Wunderground v.1.15,2013-02-03 00:11:00,
2013-02-02 19:14:00,65.6,-17.6,30.05,SE,138,0.0,0.0,3,0.00,,,0.14,Wunderground v.1.15,2013-02-03 00:14:00,
2013-02-02 19:16:00,65.5,-17.6,30.06,SE,138,0.0,0.0,3,0.00,,,0.14,Wunderground v.1.15,2013-02-03 00:16:00,
2013-02-02 19:17:00,65.5,-17.6,30.06,SE,138,0.0,0.0,3,0.00,,,0.14,Wunderground v.1.15,2013-02-03 00:17:00,
2013-02-02 19:21:00,65.3,-7.5,30.06,SE,138,0.0,0.0,5,0.00,,,0.14,Wunderground v.1.15,2013-02-03 00:21:00,
2013-02-02 19:23:00,65.2,-0.6,30.06,SE,138,0.0,0.0,7,0.00,,,0.14,Wunderground v.1.15,2013-02-03 00:23:00,
2013-02-02 19:25:00,65.0,2.1,30.06,SE,138,0.0,0.0,8,0.00,,,0.14,Wunderground v.1.15,2013-02-03 00:25:00,
2013-02-02 19:29:00,64.8,12.7,30.06,SE,138,0.0,0.0,13,0.00,,,0.14,Wunderground v.1.15,2013-02-03 00:29:00,
2013-02-02 19:30:00,64.8,14.4,30.06,SE,138,0.0,0.0,14,0.00,,,0.14,Wunderground v.1.15,2013-02-03 00:30:00,
2013-02-02 19:31:00,64.7,14.3,30.06,SE,138,0.0,0.0,14,0.00,,,0.14,Wunderground v.1.15,2013-02-03 00:31:00,
2013-02-02 19:35:00,64.5,18.7,30.06,SE,138,0.0,0.0,17,0.00,,,0.14,Wunderground v.1.15,2013-02-03 00:35:00,
2013-02-02 19:36:00,64.5,20.0,30.06,SE,138,0.0,0.0,18,0.00,,,0.14,Wunderground v.1.15,2013-02-03 00:36:00,
2013-02-02 19:37:00,64.3,19.8,30.06,SE,138,0.0,0.0,18,0.00,,,0.14,Wunderground v.1.15,2013-02-03 00:37:00,
2013-02-02 19:40:00,64.2,21.0,30.06,SE,138,0.0,0.0,19,0.00,,,0.14,Wunderground v.1.15,2013-02-03 00:40:00,
2013-02-02 19:41:00,64.2,21.0,30.06,SE,138,0.0,0.0,19,0.00,,,0.14,Wunderground v.1.15,2013-02-03 00:41:00,
2013-02-02 19:42:00,64.0,20.9,30.06,SE,138,0.0,0.0,19,0.00,,,0.14,Wunderground v.1.15,2013-02-03 00:42:00,
2013-02-02 19:43:00,63.9,20.8,30.06,SE,138,0.0,0.0,19,0.00,,,0.14,Wunderground v.1.15,2013-02-03 00:43:00,
2013-02-02 19:46:00,63.7,20.6,30.07,SE,138,0.0,0.0,19,0.00,,,0.14,Wunderground v.1.15,2013-02-03 00:46:00,
2013-02-02 19:48:00,63.5,20.5,30.07,SE,138,0.0,0.0,19,0.00,,,0.14,Wunderground v.1.15,2013-02-03 00:48:00,
2013-02-02 19:49:00,63.4,20.4,30.07,SE,138,0.0,0.0,19,0.00,,,0.14,Wunderground v.1.15,2013-02-03 00:49:00,
2013-02-02 19:51:00,63.4,20.4,30.07,SE,138,0.0,0.0,19,0.00,,,0.14,Wunderground v.1.15,2013-02-03 00:51:00,
2013-02-02 19:54:00,63.1,21.3,30.07,SE,138,0.0,0.0,20,0.00,,,0.14,Wunderground v.1.15,2013-02-03 00:54:00,
2013-02-02 19:55:00,63.1,21.3,30.07,SE,138,0.0,0.0,20,0.00,,,0.14,Wunderground v.1.15,2013-02-03 00:55:00,
2013-02-02 19:57:00,62.9,22.3,30.07,SE,138,0.0,0.0,21,0.00,,,0.14,Wunderground v.1.15,2013-02-03 00:57:00,
2013-02-02 19:59:00,62.9,23.4,30.07,SE,138,0.0,0.0,22,0.00,,,0.14,Wunderground v.1.15,2013-02-03 00:59:00,
2013-02-02 20:01:00,62.7,24.3,30.07,SE,138,0.0,0.0,23,0.00,,,0.14,Wunderground v.1.15,2013-02-03 01:01:00,
2013-02-02 20:03:00,62.7,25.3,30.07,SE,138,0.0,0.0,24,0.00,,,0.14,Wunderground v.1.15,2013-02-03 01:03:00,
2013-02-02 20:06:00,62.6,25.3,30.07,SE,138,0.0,0.0,24,0.00,,,0.14,Wunderground v.1.15,2013-02-03 01:06:00,
2013-02-02 20:08:00,62.6,26.2,30.07,SE,138,0.0,0.0,25,0.00,,,0.14,Wunderground v.1.15,2013-02-03 01:08:00,
2013-02-02 20:10:00,62.4,27.0,30.07,SE,138,0.0,0.0,26,0.00,,,0.14,Wunderground v.1.15,2013-02-03 01:10:00,
2013-02-02 20:11:00,62.4,27.0,30.07,SE,138,0.0,0.0,26,0.00,,,0.14,Wunderground v.1.15,2013-02-03 01:11:00,
2013-02-02 20:12:00,62.4,27.0,30.07,SE,138,0.0,0.0,26,0.00,,,0.14,Wunderground v.1.15,2013-02-03 01:12:00,
2013-02-02 20:14:00,62.4,27.9,30.07,SE,138,0.0,0.0,27,0.00,,,0.14,Wunderground v.1.15,2013-02-03 01:14:00,
2013-02-02 20:16:00,62.3,27.9,30.07,SE,138,0.0,0.0,27,0.00,,,0.14,Wunderground v.1.15,2013-02-03 01:16:00,
2013-02-02 20:18:00,62.3,27.9,30.07,SE,138,0.0,0.0,27,0.00,,,0.14,Wunderground v.1.15,2013-02-03 01:18:00,
2013-02-02 20:19:00,62.1,27.7,30.07,SE,138,0.0,0.0,27,0.00,,,0.14,Wunderground v.1.15,2013-02-03 01:19:00,
2013-02-02 20:21:00,62.1,28.6,30.07,SE,138,0.0,0.0,28,0.00,,,0.14,Wunderground v.1.15,2013-02-03 01:21:00,
2013-02-02 20:23:00,62.0,28.5,30.07,SE,138,0.0,0.0,28,0.00,,,0.14,Wunderground v.1.15,2013-02-03 01:23:00,
2013-02-02 20:25:00,61.8,28.3,30.07,SE,138,0.0,0.0,28,0.00,,,0.14,Wunderground v.1.15,2013-02-03 01:25:00,
2013-02-02 20:26:00,61.8,27.4,30.07,SE,138,0.0,0.0,27,0.00,,,0.14,Wunderground v.1.15,2013-02-03 01:26:00,
2013-02-02 20:28:00,61.6,28.1,30.07,SE,138,0.0,0.0,28,0.00,,,0.14,Wunderground v.1.15,2013-02-03 01:28:00,
2013-02-02 20:30:00,61.6,28.1,30.07,SE,138,0.0,0.0,28,0.00,,,0.14,Wunderground v.1.15,2013-02-03 01:30:00,
2013-02-02 20:31:00,61.6,29.0,30.07,SE,138,0.0,0.0,29,0.00,,,0.14,Wunderground v.1.15,2013-02-03 01:31:00,
2013-02-02 20:32:00,61.5,28.9,30.07,SE,138,0.0,0.0,29,0.00,,,0.14,Wunderground v.1.15,2013-02-03 01:32:00,
2013-02-02 20:37:00,61.3,31.2,30.07,SE,138,0.0,0.0,32,0.00,,,0.14,Wunderground v.1.15,2013-02-03 01:37:00,
2013-02-02 20:39:00,61.3,31.2,30.07,SE,138,0.0,0.0,32,0.00,,,0.14,Wunderground v.1.15,2013-02-03 01:39:00,
2013-02-02 20:40:00,61.3,31.2,30.07,SE,138,0.0,0.0,32,0.00,,,0.14,Wunderground v.1.15,2013-02-03 01:40:00,
2013-02-02 20:42:00,61.2,31.8,30.07,SE,138,0.0,0.0,33,0.00,,,0.14,Wunderground v.1.15,2013-02-03 01:42:00,
2013-02-02 20:47:00,61.0,33.1,30.07,SE,138,0.0,0.0,35,0.00,,,0.14,Wunderground v.1.15,2013-02-03 01:47:00,
2013-02-02 20:48:00,61.0,33.1,30.07,SE,138,0.0,0.0,35,0.00,,,0.14,Wunderground v.1.15,2013-02-03 01:48:00,
2013-02-02 20:49:00,61.0,33.1,30.07,SE,138,0.0,0.0,35,0.00,,,0.14,Wunderground v.1.15,2013-02-03 01:49:00,
2013-02-02 20:50:00,60.9,33.0,30.07,SE,138,0.0,0.0,35,0.00,,,0.14,Wunderground v.1.15,2013-02-03 01:50:00,
2013-02-02 20:53:00,60.9,35.1,30.07,SE,138,0.0,0.0,38,0.00,,,0.14,Wunderground v.1.15,2013-02-03 01:53:00,
2013-02-02 20:55:00,60.9,35.8,30.07,SE,138,0.0,0.0,39,0.00,,,0.14,Wunderground v.1.15,2013-02-03 01:55:00,
2013-02-02 20:57:00,60.7,36.2,30.07,SE,138,0.0,0.0,40,0.00,,,0.14,Wunderground v.1.15,2013-02-03 01:57:00,
2013-02-02 20:59:00,60.7,36.2,30.07,SE,138,0.0,0.0,40,0.00,,,0.14,Wunderground v.1.15,2013-02-03 01:59:00,
2013-02-02 21:01:00,60.5,36.7,30.08,SE,138,0.0,0.0,41,0.00,,,0.14,Wunderground v.1.15,2013-02-03 02:01:00,
2013-02-02 21:03:00,60.5,37.3,30.08,SE,138,0.0,0.0,42,0.00,,,0.14,Wunderground v.1.15,2013-02-03 02:03:00,
2013-02-02 21:04:00,60.5,37.9,30.08,SE,138,0.0,0.0,43,0.00,,,0.14,Wunderground v.1.15,2013-02-03 02:04:00,
2013-02-02 21:07:00,60.4,38.9,30.08,SE,138,0.0,0.0,45,0.00,,,0.14,Wunderground v.1.15,2013-02-03 02:07:00,
2013-02-02 21:09:00,60.2,38.8,30.08,SE,138,0.0,0.0,45,0.00,,,0.14,Wunderground v.1.15,2013-02-03 02:09:00,
2013-02-02 21:12:00,60.1,39.8,30.08,SE,138,0.0,0.0,47,0.00,,,0.14,Wunderground v.1.15,2013-02-03 02:12:00,
2013-02-02 21:14:00,60.1,40.3,30.08,SE,138,0.0,0.0,48,0.00,,,0.14,Wunderground v.1.15,2013-02-03 02:14:00,
2013-02-02 21:16:00,60.1,40.9,30.07,SE,138,0.0,0.0,49,0.00,,,0.14,Wunderground v.1.15,2013-02-03 02:16:00,
2013-02-02 21:17:00,60.1,41.4,30.07,SE,138,0.0,0.0,50,0.00,,,0.14,Wunderground v.1.15,2013-02-03 02:17:00,
2013-02-02 21:20:00,59.8,43.1,30.07,SE,138,0.0,0.0,54,0.00,,,0.14,Wunderground v.1.15,2013-02-03 02:20:00,
2013-02-02 21:22:00,59.8,43.1,30.07,SE,138,0.0,0.0,54,0.00,,,0.14,Wunderground v.1.15,2013-02-03 02:22:00,
2013-02-02 21:23:00,59.8,43.1,30.07,SE,138,0.0,0.0,54,0.00,,,0.14,Wunderground v.1.15,2013-02-03 02:23:00,
2013-02-02 21:27:00,59.8,43.1,30.07,SE,138,0.0,0.0,54,0.00,,,0.14,Wunderground v.1.15,2013-02-03 02:27:00,
2013-02-02 21:28:00,59.8,44.5,30.07,SE,138,0.0,0.0,57,0.00,,,0.14,Wunderground v.1.15,2013-02-03 02:28:00,
2013-02-02 21:29:00,59.8,45.0,30.07,SE,138,0.0,0.0,58,0.00,,,0.14,Wunderground v.1.15,2013-02-03 02:29:00,
2013-02-02 21:34:00,59.6,44.8,30.07,SE,138,0.0,0.0,58,0.00,,,0.14,Wunderground v.1.15,2013-02-03 02:34:00,
2013-02-02 21:35:00,59.5,44.7,30.07,SE,138,0.0,0.0,58,0.00,,,0.14,Wunderground v.1.15,2013-02-03 02:35:00,
2013-02-02 21:36:00,59.5,44.7,30.07,SE,138,0.0,0.0,58,0.00,,,0.14,Wunderground v.1.15,2013-02-03 02:36:00,
2013-02-02 21:38:00,59.5,45.2,30.07,SE,138,0.0,0.0,59,0.00,,,0.14,Wunderground v.1.15,2013-02-03 02:38:00,
2013-02-02 21:41:00,59.3,45.4,30.07,SE,138,0.0,0.0,60,0.00,,,0.14,Wunderground v.1.15,2013-02-03 02:41:00,
2013-02-02 21:43:00,59.3,45.8,30.07,SE,138,0.0,0.0,61,0.00,,,0.14,Wunderground v.1.15,2013-02-03 02:43:00,
2013-02-02 21:47:00,59.2,46.6,30.07,SE,138,0.0,0.0,63,0.00,,,0.14,Wunderground v.1.15,2013-02-03 02:47:00,
2013-02-02 21:48:00,59.2,46.6,30.07,SE,138,0.0,0.0,63,0.00,,,0.14,Wunderground v.1.15,2013-02-03 02:48:00,
2013-02-02 21:49:00,59.2,46.6,30.07,SE,138,0.0,0.0,63,0.00,,,0.14,Wunderground v.1.15,2013-02-03 02:49:00,
2013-02-02 21:52:00,59.2,47.4,30.07,SE,138,0.0,0.0,65,0.00,,,0.14,Wunderground v.1.15,2013-02-03 02:52:00,
2013-02-02 21:54:00,59.2,49.0,30.07,SE,138,0.0,0.0,69,0.00,,,0.14,Wunderground v.1.15,2013-02-03 02:54:00,
2013-02-02 21:55:00,59.2,49.0,30.07,SE,138,0.0,0.0,69,0.00,,,0.14,Wunderground v.1.15,2013-02-03 02:55:00,
2013-02-02 21:57:00,59.2,49.0,30.07,SE,138,0.0,0.0,69,0.00,,,0.14,Wunderground v.1.15,2013-02-03 02:57:00,
2013-02-02 21:59:00,59.2,49.0,30.07,SE,138,0.0,0.0,69,0.00,,,0.14,Wunderground v.1.15,2013-02-03 02:59:00,
2013-02-02 22:01:00,59.3,49.5,30.07,SE,138,0.0,0.0,70,0.00,,,0.14,Wunderground v.1.15,2013-02-03 03:01:00,
2013-02-02 22:02:00,59.3,49.1,30.07,SE,138,0.0,0.0,69,0.00,,,0.14,Wunderground v.1.15,2013-02-03 03:02:00,
2013-02-02 22:04:00,59.3,49.1,30.07,SE,138,0.0,0.0,69,0.00,,,0.14,Wunderground v.1.15,2013-02-03 03:04:00,
2013-02-02 22:06:00,59.3,49.1,30.07,SE,138,0.0,0.0,69,0.00,,,0.14,Wunderground v.1.15,2013-02-03 03:06:00,
2013-02-02 22:08:00,59.2,49.0,30.07,SE,138,0.0,0.0,69,0.00,,,0.14,Wunderground v.1.15,2013-02-03 03:08:00,
2013-02-02 22:10:00,59.2,49.0,30.07,SE,138,0.0,0.0,69,0.00,,,0.14,Wunderground v.1.15,2013-02-03 03:10:00,
2013-02-02 22:13:00,59.0,48.8,30.07,SE,138,0.0,0.0,69,0.00,,,0.14,Wunderground v.1.15,2013-02-03 03:13:00,
2013-02-02 22:15:00,58.9,48.7,30.07,SE,138,0.0,0.0,69,0.00,,,0.14,Wunderground v.1.15,2013-02-03 03:15:00,
2013-02-02 22:18:00,58.9,48.7,30.07,SE,138,0.0,0.0,69,0.00,,,0.14,Wunderground v.1.15,2013-02-03 03:18:00,
2013-02-02 22:20:00,58.9,49.9,30.07,SE,138,0.0,0.0,72,0.00,,,0.14,Wunderground v.1.15,2013-02-03 03:20:00,
2013-02-02 22:23:00,58.9,49.9,30.07,SE,138,0.0,0.0,72,0.00,,,0.14,Wunderground v.1.15,2013-02-03 03:23:00,
2013-02-02 22:25:00,58.9,50.3,30.07,SE,138,0.0,0.0,73,0.00,,,0.14,Wunderground v.1.15,2013-02-03 03:25:00,
2013-02-02 22:29:00,58.7,50.4,30.07,SE,138,0.0,0.0,74,0.00,,,0.14,Wunderground v.1.15,2013-02-03 03:29:00,
2013-02-02 22:30:00,58.7,50.8,30.07,SE,138,0.0,0.0,75,0.00,,,0.14,Wunderground v.1.15,2013-02-03 03:30:00,
2013-02-02 22:31:00,58.7,50.8,30.06,SE,138,0.0,0.0,75,0.00,,,0.14,Wunderground v.1.15,2013-02-03 03:31:00,
2013-02-02 22:34:00,58.6,51.1,30.06,SE,138,0.0,0.0,76,0.00,,,0.14,Wunderground v.1.15,2013-02-03 03:34:00,
2013-02-02 22:35:00,58.6,51.1,30.06,SE,138,0.0,0.0,76,0.00,,,0.14,Wunderground v.1.15,2013-02-03 03:35:00,
2013-02-02 22:36:00,58.6,51.1,30.06,SE,138,0.0,0.0,76,0.00,,,0.14,Wunderground v.1.15,2013-02-03 03:36:00,
2013-02-02 22:37:00,58.6,51.4,30.06,SE,138,0.0,0.0,77,0.00,,,0.14,Wunderground v.1.15,2013-02-03 03:37:00,
2013-02-02 22:42:00,58.4,51.2,30.06,SE,138,0.0,0.0,77,0.00,,,0.14,Wunderground v.1.15,2013-02-03 03:42:00,
2013-02-02 22:43:00,58.4,51.6,30.06,SE,138,0.0,0.0,78,0.00,,,0.14,Wunderground v.1.15,2013-02-03 03:43:00,
2013-02-02 22:44:00,58.4,51.9,30.06,SE,138,0.0,0.0,79,0.00,,,0.14,Wunderground v.1.15,2013-02-03 03:44:00,
2013-02-02 22:45:00,58.4,51.9,30.06,SE,138,0.0,0.0,79,0.00,,,0.14,Wunderground v.1.15,2013-02-03 03:45:00,
2013-02-02 22:48:00,58.6,52.4,30.06,SE,138,0.0,0.0,80,0.00,,,0.14,Wunderground v.1.15,2013-02-03 03:48:00,
2013-02-02 22:49:00,58.6,52.4,30.06,SE,138,0.0,0.0,80,0.00,,,0.14,Wunderground v.1.15,2013-02-03 03:49:00,
2013-02-02 22:51:00,58.6,52.1,30.06,SE,138,0.0,0.0,79,0.00,,,0.14,Wunderground v.1.15,2013-02-03 03:51:00,
2013-02-02 22:54:00,58.6,52.4,30.06,SE,138,0.0,0.0,80,0.00,,,0.14,Wunderground v.1.15,2013-02-03 03:54:00,
2013-02-02 22:55:00,58.6,52.4,30.06,SE,138,0.0,0.0,80,0.00,,,0.14,Wunderground v.1.15,2013-02-03 03:55:00,
2013-02-02 22:58:00,58.6,52.4,30.06,SE,138,0.0,0.0,80,0.00,,,0.14,Wunderground v.1.15,2013-02-03 03:58:00,
2013-02-02 22:59:00,58.6,52.4,30.06,SE,138,0.0,0.0,80,0.00,,,0.14,Wunderground v.1.15,2013-02-03 03:59:00,
2013-02-02 23:01:00,58.6,52.4,30.05,SE,138,0.0,0.0,80,0.00,,,0.14,Wunderground v.1.15,2013-02-03 04:01:00,
2013-02-02 23:05:00,58.6,52.8,30.05,SE,138,0.0,0.0,81,0.00,,,0.14,Wunderground v.1.15,2013-02-03 04:05:00,
2013-02-02 23:06:00,58.4,52.6,30.05,SE,138,0.0,0.0,81,0.00,,,0.14,Wunderground v.1.15,2013-02-03 04:06:00,
2013-02-02 23:07:00,58.4,52.6,30.05,SE,138,0.0,0.0,81,0.00,,,0.14,Wunderground v.1.15,2013-02-03 04:07:00,
2013-02-02 23:10:00,58.4,52.6,30.05,SE,138,0.0,0.0,81,0.00,,,0.14,Wunderground v.1.15,2013-02-03 04:10:00,
2013-02-02 23:11:00,58.3,52.5,30.05,SE,138,0.0,0.0,81,0.00,,,0.14,Wunderground v.1.15,2013-02-03 04:11:00,
2013-02-02 23:13:00,58.3,52.5,30.05,SE,138,0.0,0.0,81,0.00,,,0.14,Wunderground v.1.15,2013-02-03 04:13:00,
2013-02-02 23:17:00,58.3,53.2,30.05,SE,138,0.0,0.0,83,0.00,,,0.14,Wunderground v.1.15,2013-02-03 04:17:00,
2013-02-02 23:19:00,58.3,53.5,30.05,SE,138,0.0,0.0,84,0.00,,,0.14,Wunderground v.1.15,2013-02-03 04:19:00,
2013-02-02 23:23:00,58.3,53.8,30.05,SE,138,0.0,0.0,85,0.00,,,0.14,Wunderground v.1.15,2013-02-03 04:23:00,
2013-02-02 23:25:00,58.1,53.6,30.05,SE,138,0.0,0.0,85,0.00,,,0.14,Wunderground v.1.15,2013-02-03 04:25:00,
2013-02-02 23:26:00,58.1,53.9,30.05,SE,138,0.0,0.0,86,0.00,,,0.14,Wunderground v.1.15,2013-02-03 04:26:00,
2013-02-02 23:28:00,58.1,53.9,30.05,SE,138,0.0,0.0,86,0.00,,,0.14,Wunderground v.1.15,2013-02-03 04:28:00,
2013-02-02 23:30:00,58.0,53.8,30.05,SE,138,0.0,0.0,86,0.00,,,0.14,Wunderground v.1.15,2013-02-03 04:30:00,
2013-02-02 23:32:00,58.0,54.2,30.04,SE,138,0.0,0.0,87,0.00,,,0.14,Wunderground v.1.15,2013-02-03 04:32:00,
2013-02-02 23:33:00,58.0,54.5,30.04,SE,138,0.0,0.0,88,0.00,,,0.14,Wunderground v.1.15,2013-02-03 04:33:00,
2013-02-02 23:34:00,58.0,54.5,30.04,SE,138,0.0,0.0,88,0.00,,,0.14,Wunderground v.1.15,2013-02-03 04:34:00,
2013-02-02 23:36:00,58.0,54.8,30.04,SE,138,0.0,0.0,89,0.00,,,0.14,Wunderground v.1.15,2013-02-03 04:36:00,
2013-02-02 23:39:00,58.0,55.1,30.04,SE,138,0.0,0.0,90,0.00,,,0.14,Wunderground v.1.15,2013-02-03 04:39:00,
2013-02-02 23:40:00,58.0,55.1,30.04,SE,138,0.0,0.0,90,0.00,,,0.14,Wunderground v.1.15,2013-02-03 04:40:00,
2013-02-02 23:41:00,58.0,55.1,30.04,SE,138,0.0,0.0,90,0.00,,,0.14,Wunderground v.1.15,2013-02-03 04:41:00,
2013-02-02 23:43:00,58.0,55.1,30.04,SE,138,0.0,0.0,90,0.00,,,0.14,Wunderground v.1.15,2013-02-03 04:43:00,
2013-02-02 23:45:00,58.0,55.4,30.04,SE,138,0.0,0.0,91,0.00,,,0.14,Wunderground v.1.15,2013-02-03 04:45:00,
2013-02-02 23:46:00,58.0,55.7,30.03,SE,138,0.0,0.0,92,0.00,,,0.14,Wunderground v.1.15,2013-02-03 04:46:00,
2013-02-02 23:47:00,58.0,55.7,30.03,SE,138,0.0,0.0,92,0.00,,,0.14,Wunderground v.1.15,2013-02-03 04:47:00,
2013-02-02 23:51:00,58.0,56.0,30.03,SE,138,0.0,0.0,93,0.00,,,0.14,Wunderground v.1.15,2013-02-03 04:51:00,
2013-02-02 23:53:00,58.0,56.0,30.03,SE,138,0.0,0.0,93,0.00,,,0.14,Wunderground v.1.15,2013-02-03 04:53:00,
2013-02-02 23:54:00,58.0,56.0,30.03,SE,138,0.0,0.0,93,0.00,,,0.14,Wunderground v.1.15,2013-02-03 04:54:00,
2013-02-02 23:56:00,58.0,56.0,30.03,SE,138,0.0,0.0,93,0.00,,,0.14,Wunderground v.1.15,2013-02-03 04:56:00,
2013-02-02 23:57:00,58.0,56.0,30.03,SE,138,0.0,0.0,93,0.00,,,0.14,Wunderground v.1.15,2013-02-03 04:57:00,
2013-02-02 23:59:00,57.8,56.1,30.03,SE,138,0.0,0.0,94,0.00,,,0.14,Wunderground v.1.15,2013-02-03 04:59:00,